GFSNW_sfc_dewp_051.txt.gz
Dewpoint
44 43 43 44 44 43 44 41 34 46 46 36 37 31 35 38 37 36 33 31 29 29 28 28 28 28 30 31 32 30 30 28 29 28 27 30 30 28 28 27 24 25 24 21
44 43 43 43 44 43 44 37 36 43 44 32 32 34 36 39 37 36 32 31 31 30 29 30 28 29 32 33 32 30 31 30 27 26 26 28 28 28 28 28 29 28 25 21
43 43 43 43 43 44 45 37 33 38 41 39 31 32 35 36 38 34 34 32 32 30 29 30 30 31 33 35 33 38 35 29 28 26 26 31 30 28 27 29 30 26 26 24
43 42 42 43 43 44 45 38 35 38 34 36 33 30 36 35 35 34 34 32 31 31 30 29 29 30 34 35 37 34 33 30 28 28 28 27 30 30 29 31 29 28 26 25
43 42 42 43 42 44 42 36 35 37 38 32 32 35 33 37 33 32 31 31 31 30 29 28 29 30 31 31 35 34 35 29 30 29 28 28 30 28 29 30 31 31 33 33
42 42 42 43 42 44 42 42 41 38 36 34 33 33 31 36 34 36 35 32 32 30 31 32 32 33 32 33 33 35 37 34 29 27 26 28 30 31 34 36 38 37 34 36
41 41 42 42 41 43 45 42 40 36 35 35 33 33 33 33 35 34 35 34 32 38 38 37 37 36 36 36 35 34 36 32 30 27 26 27 36 36 39 38 38 39 39 39
42 42 42 41 41 42 46 44 41 37 35 35 34 34 34 34 36 36 36 36 38 40 40 37 33 33 33 35 37 36 35 36 31 28 26 26 31 36 38 37 36 41 39 36
39 40 40 40 42 43 44 44 45 41 36 36 35 33 34 34 34 36 36 42 42 42 39 36 30 26 26 28 31 37 37 36 35 31 27 24 28 33 37 40 36 41 41 37
37 37 38 39 41 44 45 44 45 42 37 40 38 36 35 38 37 37 39 41 41 42 37 33 30 27 27 26 26 31 33 35 31 27 28 26 28 32 35 32 31 41 42 37
38 38 39 39 40 43 44 43 46 41 39 42 43 41 37 38 38 36 40 39 40 40 35 35 33 29 29 26 27 29 29 28 28 28 26 25 31 33 31 34 36 36 37 40
38 38 40 40 40 40 43 42 45 45 40 43 47 46 45 43 43 42 41 39 39 40 37 37 36 30 30 26 28 29 26 25 26 28 28 30 33 33 34 35 37 37 38 38
38 38 38 39 38 39 41 43 44 43 42 45 44 41 46 47 47 45 41 42 41 41 41 41 37 34 32 28 27 30 31 30 29 32 30 33 33 35 37 37 38 38 37 37
39 39 40 39 39 38 40 43 45 42 40 39 39 46 45 48 49 48 47 45 46 46 44 41 40 37 37 33 33 31 32 34 33 31 31 32 34 36 37 37 37 35 34 35
39 40 40 40 41 40 41 43 44 44 40 39 41 45 46 47 48 48 49 47 45 43 40 40 39 41 39 38 37 34 35 33 32 28 34 35 36 37 38 37 35 33 33 34
39 41 42 42 42 42 42 40 45 45 44 41 38 45 44 46 47 46 45 45 45 44 41 42 41 42 40 37 34 32 33 35 34 32 36 37 37 38 37 36 34 33 32 33
41 43 43 43 43 43 40 40 44 46 45 42 38 40 44 45 45 45 44 45 44 44 43 41 42 43 42 38 33 32 37 38 38 38 38 37 37 37 37 34 31 31 30 29
45 46 45 45 44 43 41 43 45 45 43 45 35 39 39 44 42 41 45 43 43 44 43 43 42 41 41 38 37 36 37 39 38 38 38 37 37 36 33 31 30 28 28 27
45 46 45 44 42 39 43 48 48 46 46 40 39 37 36 43 42 43 43 43 39 43 40 41 41 40 37 38 37 37 37 37 37 38 37 38 37 36 33 32 31 29 28 27
45 43 40 38 41 46 47 46 44 43 44 43 39 39 36 40 40 40 40 39 37 33 38 39 38 38 39 39 39 39 39 38 38 37 38 39 40 37 34 32 31 29 28 26
43 40 39 44 46 46 43 39 40 40 38 41 39 38 38 41 38 39 39 36 36 33 35 35 36 33 35 34 35 38 39 38 38 38 37 38 37 36 34 32 30 28 27 25
41 41 43 43 42 39 36 35 37 36 36 39 39 40 40 41 42 39 38 35 36 32 34 33 31 33 32 33 34 36 37 37 37 36 36 37 37 36 34 31 29 27 24 22
44 40 37 39 37 33 32 32 34 35 37 37 37 38 39 40 40 36 36 33 33 33 33 30 31 33 29 32 34 36 36 36 36 36 36 37 37 35 33 30 28 24 22 21
37 34 33 34 33 35 34 34 34 35 36 37 38 37 36 37 36 35 33 33 31 30 29 31 29 27 28 33 34 35 35 35 35 35 35 35 34 33 31 29 25 23 21 21
34 33 32 32 35 36 36 36 36 37 37 37 37 36 35 36 35 32 33 31 30 30 31 33 30 28 30 32 34 34 34 34 34 33 33 33 31 30 28 26 25 22 21 21
34 33 32 32 34 34 35 35 36 37 38 36 35 34 34 34 35 31 31 31 30 32 33 33 30 30 32 32 33 33 33 33 32 32 31 30 29 28 26 24 23 22 22 20
32 32 32 32 34 35 34 33 34 36 36 34 34 32 33 31 31 30 31 32 31 30 30 29 30 30 31 31 32 32 32 32 31 30 30 29 27 25 23 23 24 24 21 21

GFSNW_sfc_dewp_054.txt.gz
Dewpoint
44 44 44 44 44 44 44 41 33 44 46 35 36 32 33 38 35 39 34 32 30 28 31 29 28 27 29 29 30 29 31 28 29 29 29 31 31 29 29 25 19 24 20 21
44 44 43 43 44 44 44 37 36 44 45 30 32 36 36 38 38 36 33 31 31 29 29 29 30 30 32 32 30 30 30 30 26 26 29 29 29 30 30 29 30 21 21 20
44 43 43 43 44 44 45 38 32 38 40 38 35 31 34 35 40 36 34 32 32 31 32 32 31 31 33 35 34 39 35 28 27 27 28 31 27 28 29 31 25 24 24 23
44 43 43 43 43 44 45 38 35 38 32 32 33 34 36 36 36 36 35 33 31 30 30 28 30 32 33 35 37 34 33 29 29 29 29 28 30 31 29 27 27 26 23 25
43 42 42 43 42 45 42 36 35 36 35 36 33 34 34 36 35 37 32 33 32 32 30 29 28 30 30 32 34 33 34 28 30 29 28 29 28 28 28 28 29 29 27 27
43 43 42 43 42 44 42 43 41 38 37 33 34 33 32 36 37 37 36 33 33 32 33 35 35 35 32 32 32 34 35 32 30 25 28 28 26 29 29 28 29 29 29 31
41 42 43 42 42 43 44 43 41 36 35 34 32 32 32 36 37 35 35 35 36 37 38 38 36 36 36 34 34 34 33 34 31 25 26 21 35 37 38 38 38 37 37 39
39 39 40 40 42 44 44 44 41 37 34 36 33 32 32 33 37 38 36 38 39 41 40 36 33 33 32 34 35 35 35 33 31 25 25 27 29 37 37 37 36 39 40 41
39 39 38 39 40 43 44 44 45 41 36 36 37 34 34 35 34 37 39 42 42 41 39 36 28 26 26 29 31 37 35 36 34 30 25 24 30 35 37 39 35 43 43 42
39 39 39 40 40 42 43 44 44 41 36 38 40 36 37 38 37 37 39 40 41 42 37 34 30 27 27 26 26 31 33 34 29 27 27 27 28 35 38 32 31 40 44 41
39 39 39 39 41 41 42 43 45 41 37 38 43 43 40 40 40 37 40 38 39 39 35 34 32 32 29 26 28 30 29 29 29 28 26 21 33 34 32 34 36 36 38 40
39 39 38 39 39 39 40 42 45 45 39 39 45 46 46 45 45 43 42 40 38 40 37 36 36 34 30 29 27 29 26 27 25 27 26 29 33 33 34 35 36 37 37 39
38 37 39 39 40 39 38 42 43 43 40 43 45 43 46 47 48 48 41 42 41 41 42 40 37 34 35 30 28 29 29 28 26 31 32 31 32 34 36 37 38 37 37 37
39 38 39 40 41 41 38 40 44 43 39 38 41 46 45 48 49 48 47 44 45 45 44 40 39 36 38 34 34 33 33 32 30 30 32 32 35 37 38 37 36 34 34 36
39 39 40 41 41 41 41 42 43 44 39 37 40 44 47 47 48 48 48 45 44 43 40 39 37 40 39 38 37 34 35 34 33 31 34 35 36 38 38 36 34 34 35 36
39 40 43 42 42 42 41 39 46 45 44 40 37 45 45 45 47 46 45 45 45 43 40 40 41 42 40 35 33 33 33 35 34 34 37 37 38 38 37 35 34 33 34 35
42 43 44 44 43 43 39 39 43 46 45 41 37 39 44 45 46 45 44 45 44 44 42 41 42 41 42 37 33 33 37 38 38 38 38 37 37 37 35 32 32 33 31 31
42 45 46 45 44 43 41 43 45 46 42 43 35 37 40 44 42 40 44 42 43 42 42 43 41 41 41 34 38 37 38 38 38 38 39 38 37 34 32 30 30 29 28 28
44 46 45 43 41 40 42 48 47 45 43 39 38 35 34 43 42 43 42 43 38 43 40 40 41 38 35 38 38 38 38 38 37 38 38 38 36 34 32 31 31 29 29 28
45 44 40 37 41 47 47 44 42 40 43 43 39 40 36 41 40 39 39 39 37 32 38 39 37 37 39 38 37 38 39 39 38 36 34 35 34 35 33 32 31 29 28 27
43 40 39 43 46 45 43 38 38 39 37 41 40 39 37 41 37 38 38 35 34 32 34 35 34 34 35 33 34 36 37 38 38 38 37 38 38 36 34 32 30 28 27 24
41 41 42 42 41 38 36 34 36 36 34 39 38 39 40 40 41 38 37 33 34 31 35 33 31 33 30 31 34 35 36 36 37 36 36 37 38 36 34 32 29 27 25 23
43 40 36 38 36 33 32 31 33 34 36 35 36 36 39 40 39 35 34 32 32 33 32 30 32 29 28 32 34 35 36 36 36 36 37 37 37 34 32 29 27 23 22 21
37 34 33 33 32 34 34 34 34 34 36 36 37 36 36 37 35 34 32 33 32 30 27 26 28 28 28 32 34 35 35 35 35 35 35 35 34 32 30 27 23 22 21 21
34 33 31 32 34 35 34 34 36 36 37 37 35 35 35 34 33 32 32 31 29 28 28 29 29 29 31 31 32 33 33 33 33 34 34 33 31 29 27 25 23 22 21 20
33 32 32 32 33 32 33 33 34 37 38 35 35 33 31 32 33 31 31 28 24 27 28 29 29 29 30 30 31 32 32 32 32 32 31 31 29 27 26 23 22 21 21 20
32 32 32 33 33 33 33 34 35 36 35 33 33 31 29 29 30 30 28 24 25 25 26 27 29 29 29 30 31 32 32 31 30 30 30 28 27 24 23 23 23 23 21 21

GFSNW_sfc_dewp_057.txt.gz
Dewpoint
45 45 44 43 44 44 45 41 33 44 47 35 35 30 34 38 34 37 38 37 30 30 32 30 29 29 29 30 31 29 31 31 28 30 31 32 31 30 29 18 15 20 17 20
44 44 43 43 44 44 44 37 37 44 44 27 29 33 36 37 34 37 36 33 31 30 31 29 29 29 32 31 31 30 30 28 26 27 29 31 31 30 30 29 29 16 15 19
43 43 43 43 44 44 44 38 31 35 37 37 34 33 35 34 38 39 36 33 32 35 32 36 33 31 35 36 35 39 34 29 24 20 24 30 28 30 31 30 25 22 22 23
43 43 43 44 43 45 44 38 35 36 29 31 34 34 36 34 35 38 37 32 32 35 34 32 31 33 34 36 38 34 31 28 28 29 30 29 30 29 28 29 29 27 24 24
42 43 44 43 43 45 42 37 34 37 36 35 34 34 35 34 37 38 33 32 33 33 33 31 29 32 32 32 35 33 34 27 31 28 29 29 28 29 30 29 28 29 28 27
40 39 40 42 42 44 41 42 41 38 35 35 32 33 35 35 39 37 37 35 35 35 35 35 34 34 32 33 33 33 33 31 30 19 28 27 23 28 28 28 28 28 26 28
40 39 39 39 40 43 43 43 41 36 33 35 33 33 36 38 39 37 36 38 37 37 39 38 38 36 35 33 34 36 33 33 31 24 26 18 24 36 35 33 36 33 33 33
39 39 39 39 40 42 41 44 41 37 33 35 35 33 33 37 38 38 39 39 40 40 38 34 32 31 30 32 35 35 35 34 29 24 22 25 33 37 37 36 34 40 39 38
39 39 39 39 41 41 41 44 44 40 35 33 36 36 35 33 35 35 40 42 42 40 38 34 28 25 26 28 31 37 35 36 32 30 25 22 29 35 38 37 35 42 41 42
39 39 39 39 40 41 40 43 43 41 35 38 39 37 36 37 37 35 38 40 39 40 35 32 30 27 28 26 26 29 33 33 30 26 26 26 28 37 38 32 29 39 44 44
39 39 38 39 39 40 40 40 45 41 37 37 39 43 42 39 38 36 38 36 37 38 33 32 32 29 30 27 28 29 28 28 27 27 24 20 28 35 33 34 36 36 41 40
41 38 37 38 40 40 40 38 44 45 39 38 42 41 43 45 45 41 41 39 37 37 35 35 35 33 31 29 26 30 28 29 28 27 26 28 31 33 34 35 35 37 38 40
41 39 38 38 40 40 39 39 42 42 39 40 42 42 46 46 47 47 40 42 41 40 41 40 37 32 33 29 28 28 29 31 27 28 29 29 29 32 37 37 38 37 37 37
41 39 39 38 40 41 41 38 42 41 39 36 40 46 44 47 47 47 45 42 44 43 43 40 38 36 36 34 33 33 32 29 27 27 30 31 34 37 38 36 35 34 35 35
40 41 40 40 42 41 41 40 42 42 39 36 39 42 46 46 46 45 46 44 44 43 41 39 35 39 38 37 36 34 35 32 31 30 33 35 36 38 38 36 34 34 35 37
39 41 42 42 44 42 39 38 45 44 43 38 36 44 43 45 47 46 46 46 45 44 41 40 41 41 40 37 35 35 35 35 36 34 36 37 38 37 36 34 33 34 35 36
40 42 43 44 44 41 38 39 43 46 45 39 37 38 44 45 45 45 45 45 43 43 41 39 40 41 41 37 32 34 35 38 38 39 38 37 37 37 33 33 33 33 32 32
41 43 46 46 45 43 40 42 44 46 42 42 34 37 39 44 42 40 43 41 42 42 41 42 40 41 40 37 37 38 38 38 38 37 38 38 35 32 30 30 30 29 29 29
41 45 45 42 39 38 41 48 46 45 42 37 37 34 32 43 42 42 42 42 38 42 38 39 41 39 35 37 38 38 39 38 38 38 38 37 35 33 31 30 29 28 28 27
44 44 40 35 40 47 47 44 40 39 40 41 38 40 36 40 40 39 39 39 35 32 37 39 37 37 40 33 34 36 36 38 39 37 35 34 33 34 31 30 30 30 28 26
43 40 39 42 46 45 42 38 38 38 36 40 40 39 37 41 37 38 39 34 33 31 33 34 33 34 31 29 33 35 36 37 37 38 38 37 38 36 33 32 30 29 27 26
39 39 41 42 40 38 35 34 35 35 34 39 38 39 40 40 41 38 37 32 33 31 36 33 31 33 28 30 33 34 35 36 36 36 36 37 38 37 33 31 29 27 25 22
42 40 35 37 35 32 32 30 32 33 35 35 35 35 37 40 39 35 34 32 32 35 32 30 30 28 29 31 33 34 35 35 35 35 36 37 38 35 34 31 27 25 22 21
36 33 31 32 32 32 33 32 32 32 34 35 37 35 36 37 35 34 32 33 32 29 27 26 29 29 29 31 31 33 33 33 33 34 35 35 33 32 31 30 27 23 22 21
33 32 30 32 33 33 33 34 35 35 36 36 35 34 34 33 33 33 32 31 28 29 30 28 28 29 30 30 30 31 32 32 32 32 33 32 30 28 25 24 23 23 21 20
33 32 31 32 32 32 33 32 33 36 37 35 34 33 32 32 32 30 30 29 27 26 26 26 26 28 28 29 29 31 32 31 31 31 31 31 29 27 24 23 22 21 21 20
31 30 32 31 32 33 33 34 34 35 35 33 33 31 29 28 29 29 29 25 28 24 23 24 25 26 27 28 29 30 30 30 29 29 28 28 26 24 23 22 23 23 21 21

GFSNW_sfc_dewp_060.txt.gz
Dewpoint
43 44 43 43 44 45 45 41 32 43 47 33 33 29 33 36 35 36 36 39 32 31 31 29 29 29 30 31 31 29 30 30 29 29 32 32 31 29 28 18 14 18 18 21
44 44 44 44 43 46 44 36 37 43 39 24 27 34 32 37 35 35 38 35 31 32 30 29 29 29 31 32 30 30 29 27 22 26 28 31 30 30 30 27 27 18 16 19
43 43 44 43 43 46 43 37 29 32 35 36 34 34 35 34 36 37 38 33 32 32 34 35 31 31 36 34 32 39 34 29 24 21 23 29 27 30 30 29 24 21 22 23
41 41 42 43 43 45 43 36 33 36 30 29 32 35 35 34 35 39 37 32 34 35 33 31 31 33 33 35 39 33 30 26 28 28 30 30 29 28 30 28 28 24 24 24
40 40 40 41 42 45 42 36 35 37 35 36 34 33 34 35 38 38 36 35 36 35 33 31 31 32 32 31 34 33 33 27 30 27 29 29 28 29 29 30 30 29 29 28
39 39 40 40 41 43 39 42 41 38 35 35 32 35 36 37 39 38 39 37 35 34 35 35 35 34 33 33 33 33 32 29 27 21 27 26 22 27 28 28 29 28 27 28
39 38 40 40 41 43 41 42 41 36 33 34 34 35 37 37 39 37 38 38 36 37 38 37 35 34 34 34 35 34 31 31 31 22 25 18 22 33 30 29 28 30 29 29
40 39 39 40 41 42 39 43 41 37 33 33 35 35 36 36 38 38 39 39 40 39 37 32 31 31 31 32 35 34 34 33 29 24 23 24 28 36 36 35 32 38 38 38
40 39 39 39 39 41 39 43 44 40 35 32 36 36 35 32 33 36 39 42 42 39 36 32 25 26 26 28 31 36 36 36 32 29 24 21 26 34 38 37 33 38 41 40
40 40 39 38 39 40 39 40 43 41 35 37 38 36 35 36 35 33 36 38 38 38 33 28 27 27 29 25 25 29 33 34 30 29 27 25 28 30 37 33 29 38 42 43
40 41 38 37 38 40 38 37 44 41 37 37 38 40 41 39 37 35 37 35 35 35 31 31 28 28 29 27 27 28 28 28 29 29 26 21 28 36 32 35 35 35 37 42
40 41 40 38 39 41 39 35 44 44 39 37 40 40 41 41 45 41 39 36 36 35 34 32 31 31 30 28 27 29 28 28 26 26 25 27 28 31 32 34 34 35 37 39
40 40 41 39 38 39 40 36 40 40 38 39 40 40 45 43 43 48 41 40 41 40 39 38 37 33 32 28 28 28 30 31 27 28 28 29 30 30 32 37 37 37 37 37
41 40 40 40 40 40 41 38 41 40 38 35 39 45 43 46 46 46 44 41 43 43 42 39 38 36 35 33 33 32 30 30 29 27 28 29 34 34 37 37 35 34 34 36
40 41 40 41 42 42 41 40 41 41 37 35 38 41 43 45 45 44 46 44 43 43 40 39 37 39 37 35 34 32 34 31 28 28 30 32 35 38 38 36 35 34 35 37
40 40 41 43 43 42 39 36 42 42 41 37 35 42 42 45 47 46 46 45 44 43 41 40 41 40 38 36 35 33 36 35 35 32 35 36 38 38 36 34 34 34 36 37
40 41 43 44 44 41 36 38 43 44 44 38 36 38 43 45 45 45 45 45 44 43 41 40 39 40 40 37 31 34 37 38 38 38 38 37 37 37 33 33 34 34 32 33
40 43 45 45 45 43 39 41 42 46 42 41 34 36 35 42 42 40 43 41 42 42 40 41 39 40 39 36 36 38 38 38 38 38 38 37 35 32 31 31 30 30 30 29
40 43 43 41 39 37 40 47 45 45 42 37 37 34 29 43 42 42 42 41 37 41 38 39 41 38 35 32 31 34 35 36 37 39 38 36 36 33 30 30 29 29 28 28
43 43 39 36 38 46 45 43 39 38 40 39 37 40 36 40 39 39 39 39 34 32 37 40 38 37 33 30 32 34 34 35 36 36 37 35 34 34 31 30 29 29 28 27
42 39 38 42 45 44 41 37 36 36 35 40 40 39 37 41 36 37 39 34 33 31 33 34 32 33 30 29 31 33 34 35 35 36 37 38 37 37 34 31 30 30 28 27
38 38 41 41 40 38 35 34 35 35 34 39 37 38 40 40 40 38 36 32 32 30 35 33 31 30 28 30 31 32 34 34 35 35 35 36 37 38 35 32 30 28 27 28
42 39 35 36 35 31 31 29 32 33 35 35 35 35 37 40 39 35 34 32 32 35 32 30 28 29 29 30 31 31 34 33 33 34 35 36 38 36 33 31 29 27 26 27
36 33 30 32 31 32 28 26 29 33 35 35 37 35 36 37 35 35 32 33 32 29 27 27 28 28 29 29 30 30 33 34 33 32 33 34 35 35 35 32 28 27 27 28
33 32 29 32 33 33 33 34 35 35 36 36 35 34 34 33 33 33 32 30 27 29 29 28 28 28 28 28 29 30 31 32 31 30 31 31 30 30 29 28 29 26 22 20
33 32 30 32 32 32 32 33 33 35 37 34 34 33 32 32 32 30 30 29 27 29 28 26 26 27 27 28 28 30 30 30 29 29 29 30 29 27 24 24 24 25 23 21
30 27 32 32 32 32 33 34 34 35 35 33 33 31 30 30 29 29 30 29 29 23 22 24 25 25 26 27 28 28 29 29 29 28 27 27 26 23 22 22 23 23 22 22

GFSNW_sfc_dewp_063.txt.gz
Dewpoint
44 44 44 44 43 46 43 37 28 40 43 30 33 26 33 36 36 37 36 37 32 30 30 28 28 28 30 31 31 28 31 30 29 27 31 32 31 29 28 19 15 20 16 19
42 41 41 43 43 45 42 33 33 40 38 23 27 33 35 37 36 36 37 33 32 31 30 27 28 28 31 32 30 29 30 26 21 25 27 31 30 30 29 26 24 14 15 18
41 41 41 42 43 45 40 35 29 32 33 33 33 32 34 35 38 37 38 33 33 33 33 33 30 30 36 33 31 38 33 27 23 21 23 28 27 30 30 27 23 19 20 22
41 40 41 41 42 44 40 37 30 35 30 30 34 34 34 34 35 38 37 34 35 34 31 31 32 33 33 35 39 33 30 26 28 27 29 29 29 29 30 26 27 22 22 23
41 39 41 41 42 44 41 35 34 37 35 36 36 35 35 36 35 36 34 35 35 34 31 31 31 32 32 31 33 32 31 28 29 26 27 29 28 29 29 30 29 28 28 28
41 40 40 41 42 42 39 41 41 38 34 35 32 36 37 38 39 39 38 37 35 34 35 35 34 34 34 33 32 32 30 28 26 19 26 26 21 26 28 28 30 29 27 29
42 40 40 40 40 42 39 41 41 36 31 33 33 34 38 38 39 38 39 39 35 36 38 36 34 34 34 35 34 33 29 30 29 23 24 16 21 29 29 28 28 29 29 29
41 40 39 39 40 41 38 42 41 37 31 32 33 35 36 37 37 39 39 40 40 40 35 31 31 31 32 33 35 33 32 32 28 22 24 23 26 34 34 31 31 33 30 32
40 41 40 38 38 40 38 41 44 40 35 31 35 35 35 33 33 35 38 41 41 37 34 30 24 24 26 28 32 36 36 36 27 27 23 20 23 34 38 36 32 37 40 40
41 40 42 38 37 39 38 38 43 40 35 35 37 36 38 36 34 33 36 37 37 37 31 26 23 25 28 25 25 30 33 34 30 28 27 24 26 31 36 30 30 36 39 39
42 40 41 41 38 39 38 36 41 41 35 36 37 38 40 41 36 33 36 33 34 34 29 27 26 27 28 26 27 27 28 28 27 28 25 19 27 35 31 35 35 34 34 36
42 41 40 41 40 39 39 36 41 43 38 37 40 40 40 41 45 41 38 34 35 35 33 31 31 30 29 27 25 29 27 28 26 27 25 27 27 35 34 32 32 36 36 37
41 42 41 41 41 40 38 39 37 38 37 38 39 38 42 42 41 43 40 41 40 39 38 35 34 30 30 27 29 27 30 31 28 28 28 29 30 30 30 32 37 37 36 35
41 40 40 42 42 42 40 40 39 38 38 34 38 44 44 48 46 46 44 41 42 42 42 38 37 34 35 31 32 31 31 31 30 28 28 29 31 32 34 37 36 35 34 35
41 40 41 40 41 42 41 39 39 40 36 34 36 39 42 45 44 44 44 43 42 42 40 39 35 36 37 34 34 31 33 30 28 28 29 30 31 37 38 37 36 34 34 36
40 40 41 41 43 43 40 32 39 41 39 36 34 41 43 45 46 45 45 45 44 43 41 40 41 40 37 35 32 34 35 36 33 32 35 34 36 38 37 35 34 34 35 36
40 40 41 42 44 42 33 34 42 42 40 36 34 36 43 45 45 44 44 45 44 44 42 40 40 40 40 37 33 35 37 37 37 38 38 37 37 37 34 33 34 34 33 34
40 40 45 45 44 42 38 40 41 44 39 40 33 36 34 43 41 40 44 40 42 42 40 40 39 40 40 34 34 32 34 34 37 36 38 37 35 33 32 32 31 31 31 31
40 41 43 39 37 36 39 42 45 45 41 36 36 34 29 43 42 42 41 41 37 41 38 38 40 37 34 33 31 32 33 34 34 36 37 38 36 36 32 30 30 30 29 30
42 42 38 35 37 44 45 42 38 37 39 39 36 39 36 40 37 39 39 39 35 32 37 40 36 34 33 30 31 32 33 34 34 34 33 37 36 35 35 32 30 30 29 28
42 38 37 41 45 43 40 35 35 36 34 38 39 38 36 41 36 37 39 34 33 30 33 34 33 31 31 30 31 31 33 35 34 35 35 35 36 37 37 35 31 29 28 27
35 36 39 41 39 37 33 33 35 34 33 38 38 38 39 39 41 38 36 32 32 29 35 32 31 30 29 29 29 30 33 35 33 33 34 35 36 37 38 35 32 30 28 28
41 38 34 35 35 30 31 29 31 32 35 35 35 35 37 39 39 35 34 31 31 35 32 30 29 29 28 29 29 30 33 35 33 32 32 34 38 37 34 31 29 28 28 29
35 32 30 31 31 32 32 30 25 33 35 35 37 35 34 37 35 35 32 33 32 28 27 28 29 27 28 28 29 30 31 33 33 32 31 33 33 36 35 32 30 29 29 30
33 32 28 31 33 33 33 34 35 35 37 36 34 34 34 33 33 33 32 30 25 28 28 28 28 27 27 28 28 29 30 31 31 31 30 30 30 30 33 32 31 28 30 29
32 32 28 30 32 32 32 32 33 35 36 34 34 32 32 31 32 31 29 28 25 26 27 25 25 26 27 27 28 28 28 29 29 29 28 28 27 28 26 27 30 30 25 23
29 29 32 31 30 32 32 34 34 34 35 32 33 30 29 31 29 28 30 30 29 23 21 23 24 25 25 26 27 28 28 28 28 28 28 26 25 24 23 22 23 25 27 28

GFSNW_sfc_dewp_066.txt.gz
Dewpoint
43 41 42 42 43 45 43 35 24 38 40 27 32 29 35 37 37 38 37 36 32 30 29 28 28 27 30 32 31 29 31 29 28 29 31 32 30 28 26 19 16 18 15 17
43 41 42 42 43 45 43 34 32 38 36 23 29 32 35 37 37 37 36 30 32 31 29 27 28 28 31 32 30 29 29 26 25 26 27 31 30 30 28 25 23 15 16 15
43 41 41 41 43 45 40 36 28 32 32 34 33 32 33 34 38 37 37 32 33 32 31 31 29 32 35 33 32 38 32 26 22 19 21 28 27 30 28 26 19 20 19 20
43 41 40 42 43 44 40 36 30 36 29 32 35 36 34 35 35 37 36 34 34 32 30 31 32 33 32 34 37 32 29 26 27 27 29 29 28 29 29 25 25 22 22 23
43 41 40 41 42 43 41 36 34 37 35 35 35 37 36 36 36 36 35 34 34 33 31 32 31 32 31 30 33 31 29 28 27 25 28 29 28 29 30 29 28 27 27 27
43 41 40 40 41 42 39 40 41 38 34 34 32 36 37 37 36 38 39 36 34 33 34 35 34 34 33 32 31 30 29 27 25 19 26 26 21 26 28 29 30 29 26 28
42 41 40 39 40 41 38 41 40 36 31 32 32 34 37 37 38 37 38 38 34 37 37 36 34 35 35 34 33 31 28 28 28 22 22 14 20 26 29 28 28 30 30 29
42 41 42 40 38 41 37 41 40 37 32 31 32 34 36 36 37 38 39 39 40 40 34 32 30 31 30 33 36 34 31 30 27 21 21 22 26 33 31 30 31 31 30 31
43 42 41 42 39 38 37 38 43 39 34 31 35 35 35 33 33 35 38 40 40 36 33 29 24 23 25 28 33 36 36 33 25 23 21 18 22 33 37 36 32 37 36 39
43 43 41 41 41 38 38 36 41 39 35 33 36 36 37 37 34 33 35 37 37 35 29 26 23 24 27 24 24 31 31 32 27 26 21 24 26 30 34 27 31 35 35 33
42 42 42 41 41 40 38 37 38 40 36 36 37 37 38 40 38 33 35 32 33 33 28 26 26 26 27 24 25 26 27 27 25 26 23 16 26 31 30 33 32 33 33 35
41 43 41 42 41 41 40 35 39 42 36 36 39 39 39 39 41 42 39 34 34 34 31 30 30 29 29 25 23 27 26 26 25 25 24 26 26 34 35 32 30 33 37 36
41 41 41 41 41 43 41 39 38 38 33 34 38 37 39 40 40 41 40 40 40 38 36 33 32 29 30 26 27 26 29 30 28 27 29 29 29 30 30 31 30 37 36 35
41 41 41 40 42 41 41 38 40 38 35 33 34 42 42 47 42 42 45 41 41 41 41 36 35 33 33 31 31 30 30 30 29 28 29 30 31 32 31 37 37 36 34 34
41 41 40 40 41 41 42 40 40 39 36 32 35 39 40 45 46 45 45 43 41 41 39 38 35 36 36 32 33 30 32 31 29 29 30 30 31 33 38 37 37 34 34 35
39 40 41 41 41 42 39 36 38 41 40 35 32 41 41 45 46 45 45 45 43 43 41 39 40 38 37 33 33 34 36 37 36 32 35 34 34 36 36 35 35 34 35 35
40 39 40 41 42 43 36 31 41 42 40 35 33 36 41 45 45 45 44 45 44 44 42 40 40 39 39 37 32 34 34 34 36 37 37 37 37 36 34 33 34 34 33 33
40 40 41 44 44 43 39 39 42 43 37 38 32 36 35 44 41 40 43 40 42 42 40 40 39 40 40 34 34 32 33 34 34 34 36 36 37 35 33 32 32 31 32 32
41 40 43 40 38 37 37 43 42 43 39 34 35 34 31 42 42 42 41 41 37 41 38 36 39 36 33 33 31 31 32 33 34 35 35 36 37 38 36 31 30 30 31 30
40 42 37 32 35 43 42 42 36 37 38 38 35 39 36 40 40 36 39 39 36 32 36 40 36 34 34 32 30 31 32 33 35 34 33 34 34 36 36 36 34 31 31 30
39 37 35 40 44 41 38 33 33 34 34 37 36 36 36 41 37 36 39 34 33 30 34 34 33 32 32 30 30 31 31 34 36 34 34 34 35 34 35 37 36 32 30 29
33 34 38 39 38 35 32 31 34 33 31 38 38 39 38 39 41 38 36 32 32 27 35 32 30 30 29 29 28 29 30 34 34 34 33 32 34 35 36 37 36 31 30 28
40 37 33 34 34 29 31 27 31 32 35 35 36 35 38 39 39 35 34 31 31 35 31 29 29 30 30 28 29 29 30 34 34 33 33 32 33 37 35 31 30 29 28 28
35 32 29 30 30 32 32 30 30 34 35 35 37 35 35 37 35 35 32 33 32 26 23 24 29 28 27 28 29 30 31 33 33 33 33 31 32 34 35 32 30 30 29 31
33 32 27 30 33 33 33 34 34 35 37 36 34 34 34 33 33 33 32 30 23 27 26 28 27 28 28 28 28 29 28 30 31 31 31 31 31 31 31 32 31 30 31 31
32 32 29 30 31 32 32 32 33 35 37 35 33 32 30 30 32 30 29 28 22 25 26 25 25 27 27 26 27 28 28 28 28 29 28 27 27 28 30 31 31 30 28 28
29 29 32 31 31 31 32 34 34 35 35 28 32 28 26 30 29 28 30 29 29 28 21 22 24 25 25 25 26 27 27 26 27 28 28 28 27 26 24 24 25 26 30 28

GFSNW_sfc_dewp_069.txt.gz
Dewpoint
45 43 42 43 43 45 42 33 24 37 39 30 29 30 34 38 37 38 37 35 31 30 29 28 27 28 30 32 31 29 31 30 29 30 31 31 29 28 25 21 19 19 17 16
44 44 42 42 43 45 41 34 33 37 36 29 29 32 33 37 35 35 36 31 32 31 29 27 28 29 32 32 31 29 29 27 26 25 27 31 30 30 27 25 24 21 18 14
44 44 42 41 43 44 38 31 25 32 35 35 34 33 34 34 38 37 36 33 33 31 30 31 29 32 33 33 35 37 31 26 23 21 21 29 29 29 27 27 23 22 21 20
45 43 42 41 42 43 39 33 26 36 31 34 35 36 36 36 34 36 36 33 34 30 29 30 31 32 32 34 35 32 29 27 27 28 29 29 29 30 28 26 25 24 22 23
44 43 42 41 42 43 37 36 35 37 35 35 35 37 36 36 35 35 34 33 34 33 31 32 30 31 30 28 31 29 29 28 26 25 27 29 28 29 30 29 28 26 26 26
44 43 42 41 41 41 34 40 41 38 34 33 34 34 36 36 37 38 38 35 33 32 33 34 34 34 33 32 30 29 28 27 24 21 26 26 22 27 29 29 30 28 27 28
43 42 42 42 39 41 37 40 39 35 30 32 32 35 36 37 38 37 38 37 34 36 38 36 34 35 35 34 33 31 28 28 27 23 22 15 20 28 30 29 28 30 30 30
42 43 42 41 40 39 37 38 40 36 31 31 33 34 35 35 37 37 37 39 39 40 34 32 29 29 29 33 36 35 31 29 27 22 21 20 29 32 29 29 32 30 30 31
42 43 43 41 42 40 38 36 40 38 34 31 34 35 36 34 33 34 36 39 39 36 33 29 25 23 25 27 32 35 34 30 26 25 21 17 23 33 36 37 35 36 31 38
42 42 42 42 41 41 38 37 38 34 35 33 35 35 35 40 34 33 34 37 36 34 29 27 24 24 27 24 23 28 30 29 25 25 23 23 25 28 34 28 32 37 34 32
42 42 43 41 43 42 38 36 38 36 35 34 35 36 36 37 40 35 35 32 33 32 28 26 26 26 26 24 25 26 26 26 25 25 24 16 26 31 32 32 33 34 32 35
42 41 41 41 41 41 40 37 38 41 35 34 37 35 36 38 38 39 39 34 33 34 31 30 30 29 28 25 23 27 25 26 25 25 24 26 27 34 35 33 31 30 35 37
41 41 41 41 41 42 42 39 39 36 34 32 33 33 37 38 36 39 38 38 38 38 36 32 31 28 29 26 27 26 28 30 28 27 28 29 30 30 30 31 31 32 37 36
41 41 41 41 40 41 42 40 39 38 34 29 32 39 39 44 41 40 40 42 42 40 40 35 34 32 32 29 30 29 30 30 29 28 30 31 31 32 36 36 36 36 35 35
41 41 39 40 41 41 42 40 40 39 33 31 32 35 38 43 42 41 41 44 42 41 39 38 35 37 36 31 31 29 32 30 29 29 31 30 31 33 36 37 37 36 34 35
41 40 38 40 40 41 40 36 39 40 38 34 29 40 40 45 46 45 45 44 43 43 41 39 39 38 35 30 33 32 33 36 35 32 36 36 37 37 36 34 34 34 35 36
41 38 39 40 42 43 36 33 40 41 41 35 31 35 39 45 45 45 45 45 44 43 41 40 39 39 39 36 32 32 34 33 34 36 35 36 37 35 36 34 33 33 33 34
41 40 41 41 43 44 39 41 43 42 38 36 30 35 36 44 41 40 44 41 42 41 40 40 38 39 38 34 35 32 32 33 33 34 35 35 35 35 36 33 32 32 32 32
42 41 42 42 38 37 37 43 43 42 37 32 34 33 28 42 40 41 41 41 36 41 38 37 39 37 34 34 32 31 32 32 33 34 34 35 35 35 36 36 33 31 32 31
39 42 37 34 35 42 40 39 36 35 36 36 34 38 35 40 40 39 39 39 36 32 36 39 36 35 33 31 30 31 31 32 35 34 33 33 34 34 34 35 36 36 34 32
35 36 35 39 43 39 36 32 32 33 32 36 36 34 36 40 37 36 39 34 33 30 33 34 32 33 33 30 30 30 30 31 35 35 34 33 33 33 34 34 35 37 35 31
33 33 36 37 37 34 31 30 33 32 31 37 36 36 36 38 41 37 36 32 32 28 36 32 29 31 29 28 28 28 28 32 34 34 33 33 32 33 36 35 36 37 33 30
38 36 33 33 33 28 28 28 31 32 35 35 36 35 38 39 40 35 34 31 30 35 31 28 27 28 29 28 29 29 31 33 33 33 33 33 32 34 36 33 30 30 29 28
35 32 28 30 29 31 32 31 31 34 35 36 37 35 35 37 35 35 32 33 32 28 23 25 28 27 28 30 31 30 30 31 31 31 32 33 32 33 33 33 32 31 29 30
32 32 26 29 32 33 33 33 34 35 36 36 33 34 34 33 33 33 32 30 25 27 27 29 28 28 29 29 30 30 29 30 30 31 30 31 31 32 32 32 33 31 31 31
32 31 29 30 30 31 32 32 32 35 37 35 33 32 31 30 32 30 29 27 25 26 28 27 28 29 28 27 27 28 27 26 28 29 30 28 27 27 30 32 31 31 30 30
25 25 31 31 31 30 32 33 34 35 35 32 31 29 25 30 27 28 28 25 26 27 25 24 25 25 24 25 24 24 23 24 26 28 29 29 28 27 25 24 24 26 29 31

GFSNW_sfc_dewp_075.txt.gz
Dewpoint
45 45 45 44 44 45 42 39 39 40 44 38 37 35 35 37 36 38 37 35 30 28 28 28 29 30 30 31 30 28 30 30 31 30 32 35 34 32 31 30 26 26 27 19
45 45 45 44 44 43 42 35 37 41 41 34 33 34 35 36 36 35 34 31 31 30 28 27 30 30 31 33 31 27 28 29 27 27 28 30 28 28 26 25 29 31 27 18
44 45 44 44 43 43 42 36 34 38 39 38 35 34 33 34 37 35 34 32 30 28 28 29 29 29 33 33 30 37 32 25 26 23 26 29 30 28 27 28 32 24 22 20
44 45 44 44 43 43 40 35 34 35 34 34 36 36 35 35 33 34 33 30 30 28 26 27 29 30 30 31 34 30 28 26 28 27 28 28 29 29 28 33 26 24 20 19
44 44 45 43 43 43 36 36 35 34 34 34 34 35 34 35 35 34 32 32 31 31 30 31 26 29 28 28 29 28 29 26 26 25 27 28 28 28 28 28 26 25 23 22
44 44 44 44 43 40 32 35 38 37 32 32 32 34 34 35 37 35 36 35 32 32 34 34 33 32 31 31 29 28 27 25 24 27 25 26 26 26 28 27 28 26 24 25
43 43 43 44 43 41 36 35 39 35 29 31 31 35 36 37 37 35 36 36 33 35 38 36 33 32 31 30 30 30 27 25 26 23 22 21 25 28 28 29 28 28 28 28
42 43 43 44 44 43 38 37 35 34 28 28 31 33 35 38 36 35 36 37 38 38 36 32 29 29 28 30 31 29 27 27 26 25 19 20 27 29 27 29 32 31 30 31
43 43 43 43 43 44 39 40 40 33 30 30 28 31 35 36 37 35 36 38 39 37 34 31 26 25 23 24 27 31 28 27 27 27 21 15 30 34 35 36 32 32 33 35
43 43 43 42 42 43 41 40 40 36 30 26 30 32 34 37 38 36 36 38 37 37 33 30 27 24 26 23 23 25 27 28 27 25 25 20 28 27 33 29 34 35 36 37
43 42 42 42 42 43 41 39 42 37 32 29 29 28 29 33 36 36 37 37 36 36 32 30 27 25 26 26 26 26 25 26 26 25 24 21 29 34 32 33 35 35 34 38
43 42 41 42 42 42 41 38 41 41 38 32 32 32 32 30 32 35 35 37 38 37 35 33 32 27 28 26 23 29 25 26 25 26 25 28 28 30 31 31 32 33 33 36
42 42 42 42 41 40 40 40 40 40 37 32 31 27 30 32 30 34 32 40 42 40 39 37 33 30 31 25 25 28 29 30 27 28 29 28 30 33 35 35 37 35 34 35
42 41 42 42 42 40 39 39 40 40 36 30 25 28 33 36 38 32 30 37 40 43 43 40 36 31 33 29 30 29 30 31 29 29 29 30 31 35 36 37 37 38 37 36
43 42 41 42 41 38 41 41 40 40 36 28 27 29 29 31 29 40 37 34 35 40 40 39 35 38 33 33 33 29 30 28 28 25 31 32 32 36 37 37 37 37 36 37
43 42 42 43 42 41 42 36 40 40 41 35 28 28 30 38 38 42 39 37 38 41 41 39 40 38 35 31 29 29 31 32 31 30 36 36 37 38 36 35 37 36 36 36
43 42 42 43 43 42 38 35 40 41 41 34 28 28 35 37 42 43 42 42 43 43 41 39 37 38 38 33 30 29 31 33 36 37 37 37 36 36 35 37 37 36 35 35
42 43 43 42 42 41 39 42 42 42 38 35 28 28 35 41 40 38 44 42 42 42 40 40 37 37 38 35 34 34 34 35 35 35 35 35 36 35 36 36 36 36 36 36
43 43 40 42 40 38 38 42 43 43 38 32 32 30 32 42 41 40 42 41 37 41 38 36 37 34 34 34 35 35 34 33 34 34 34 35 35 35 35 35 35 35 35 36
41 40 38 33 37 42 42 40 36 35 35 35 30 31 32 39 39 38 38 39 36 33 35 39 36 36 35 33 32 32 31 31 32 33 34 35 34 34 34 34 34 34 35 35
37 31 33 38 39 38 36 32 31 32 30 31 31 31 34 41 36 36 39 35 35 31 34 34 34 32 35 32 31 30 30 30 32 33 34 34 34 34 33 33 34 35 37 37
37 37 37 36 33 34 30 30 32 31 27 35 34 36 37 39 41 37 37 34 34 30 37 33 29 32 30 29 29 30 31 32 32 32 32 33 33 33 33 33 35 34 31 31
37 36 33 33 33 28 28 27 30 31 34 34 35 35 38 39 40 36 34 32 31 36 32 28 30 31 29 29 31 32 32 32 31 31 31 32 32 33 34 33 34 33 32 30
32 31 25 29 29 31 32 31 32 34 33 33 34 33 36 37 35 35 32 35 34 30 28 29 32 31 28 31 32 32 32 32 32 32 33 33 32 33 34 34 33 33 32 32
30 30 24 28 33 34 34 34 34 34 34 33 33 34 35 33 32 33 33 31 29 29 30 34 34 29 31 32 32 32 31 32 32 32 32 32 32 32 33 33 32 32 32 32
30 28 26 29 31 33 33 33 33 35 33 33 33 33 32 33 34 31 32 30 29 33 34 34 33 33 31 31 28 24 22 24 26 27 29 30 30 30 30 32 31 31 30 30
27 28 30 29 29 29 31 31 32 35 33 32 33 31 31 33 31 29 34 32 34 33 30 33 34 32 31 24 22 20 21 22 22 23 24 25 27 28 27 28 29 29 29 30

GFSNW_sfc_dewp_078.txt.gz
Dewpoint
46 45 46 45 45 46 43 41 39 44 46 37 38 35 34 37 37 39 38 36 31 29 28 30 29 28 29 32 31 31 37 36 32 34 37 36 34 34 33 31 27 28 27 21
45 45 45 45 45 44 42 36 38 45 42 32 33 32 33 36 35 35 34 31 32 30 28 30 30 30 33 33 32 29 30 31 29 31 34 36 34 36 35 29 31 29 27 19
46 45 45 45 45 45 43 36 33 37 40 38 36 34 32 35 39 37 33 31 31 29 29 30 30 31 34 34 31 38 36 27 27 26 28 31 29 31 33 31 30 27 24 21
45 45 45 44 46 46 41 35 34 35 33 34 34 36 35 33 35 34 34 32 31 29 28 28 28 30 31 32 36 31 30 27 28 28 28 30 30 29 28 27 30 26 19 21
45 44 44 45 45 45 35 34 33 35 33 33 36 36 33 33 34 35 32 33 32 33 31 31 28 30 29 29 29 28 28 26 27 25 27 29 29 29 29 29 28 26 23 23
44 44 44 44 44 43 34 33 35 37 30 31 34 34 35 35 37 39 35 35 34 33 34 35 33 32 30 30 29 28 27 25 24 22 26 27 23 27 28 27 28 27 24 26
43 44 44 44 44 43 39 35 37 33 25 27 33 34 36 36 37 37 35 37 34 36 38 37 35 31 31 30 29 29 27 25 27 22 22 17 26 29 30 28 28 27 28 30
44 44 44 43 43 44 41 38 35 32 26 24 29 28 35 37 38 37 36 37 38 38 37 35 30 30 29 30 31 28 28 27 26 23 20 21 25 29 28 28 29 29 29 31
44 43 43 43 43 43 41 39 39 33 29 27 25 26 36 34 35 37 37 39 39 38 35 32 28 28 23 24 26 31 28 27 27 24 21 18 32 31 34 36 30 32 32 36
44 43 43 42 42 43 43 41 41 37 29 27 27 26 27 37 36 35 38 37 38 38 34 31 27 26 26 24 22 24 27 28 25 24 23 22 30 28 33 30 32 35 37 36
43 43 42 42 42 43 42 39 42 38 33 30 30 29 28 29 32 34 37 37 38 37 33 30 27 27 26 26 27 27 25 25 25 25 22 19 31 34 33 36 37 37 36 38
43 43 42 43 42 42 41 38 41 41 37 31 32 31 32 31 31 31 35 36 38 38 35 35 31 28 28 26 25 29 26 27 26 26 26 28 30 30 31 32 34 34 33 37
43 42 42 43 42 42 40 39 40 40 36 31 30 30 31 33 33 33 33 39 42 41 41 37 34 31 30 27 27 28 30 30 28 28 28 28 29 36 36 37 37 36 36 36
42 43 43 41 42 42 38 38 39 40 37 31 25 27 28 32 34 32 32 34 36 39 42 38 37 33 32 29 30 28 31 31 29 29 29 30 33 36 37 37 38 38 37 36
43 44 43 42 42 43 41 41 40 41 37 29 28 31 30 32 31 33 34 31 31 38 38 38 35 37 34 33 33 29 31 28 29 28 32 32 34 37 36 37 37 37 37 37
44 43 43 43 43 44 40 35 41 41 41 35 28 30 27 27 32 29 38 39 35 39 40 39 40 39 36 31 29 29 30 31 32 33 37 37 37 37 36 36 36 37 36 36
43 43 43 43 43 42 37 34 40 42 42 34 27 28 34 35 38 41 42 39 40 41 40 38 38 38 38 34 29 29 30 32 37 37 36 36 35 35 36 37 37 37 36 35
43 43 43 42 41 42 39 41 43 42 38 36 26 25 29 39 39 38 43 40 41 42 39 40 38 38 37 33 34 34 35 35 35 35 35 35 35 36 36 36 36 36 35 36
43 43 40 42 41 38 39 42 42 43 37 31 29 26 27 37 40 39 40 41 35 41 38 38 37 35 33 34 33 35 34 34 34 34 35 35 35 35 35 35 35 34 34 35
42 39 37 34 38 42 42 39 35 35 35 35 28 29 28 34 38 37 37 39 36 32 35 38 34 34 35 32 32 31 31 31 33 33 34 35 35 34 34 34 34 34 34 35
38 34 33 37 39 37 36 31 31 30 29 31 30 29 29 37 33 35 39 34 34 30 33 33 31 29 34 32 30 30 31 31 32 33 33 34 34 33 33 33 33 34 35 35
38 37 37 37 32 31 30 29 32 30 28 34 33 35 35 36 41 36 36 33 33 29 36 33 28 31 31 30 29 31 31 32 31 32 31 32 32 33 33 33 34 34 33 33
37 35 33 32 32 25 26 26 29 29 33 33 33 32 36 38 39 35 34 32 31 36 31 26 27 30 29 30 31 32 32 31 31 31 31 31 31 32 34 33 33 33 33 33
31 26 16 28 28 30 31 30 30 34 32 32 32 31 33 37 34 34 31 34 33 28 27 25 30 33 29 32 32 32 31 32 32 32 33 33 33 33 34 34 33 33 32 33
26 26 15 24 31 33 33 32 32 34 34 32 31 32 33 32 32 32 32 30 26 27 28 32 33 33 32 32 32 31 31 30 29 31 30 30 30 31 31 33 33 32 31 31
29 27 22 26 24 25 25 29 29 34 32 33 32 31 32 32 32 31 30 28 25 31 32 32 32 32 33 32 27 23 23 24 24 26 27 29 29 29 28 29 29 29 29 29
26 25 27 26 27 27 28 30 29 32 32 29 30 29 28 32 30 29 32 31 32 32 30 31 32 32 31 29 26 21 21 21 21 22 23 22 22 27 24 24 26 27 28 26

GFSNW_sfc_dewp_081.txt.gz
Dewpoint
47 45 45 46 45 47 43 37 30 41 44 32 36 33 33 37 36 39 38 37 35 30 29 30 29 30 32 37 38 36 36 32 29 33 36 36 35 33 31 23 23 21 25 21
46 45 45 46 45 46 41 35 34 41 38 30 33 34 33 35 37 36 35 33 32 31 29 29 30 31 34 33 31 32 36 31 26 28 34 35 34 35 34 30 28 18 20 24
46 45 45 46 47 47 41 35 29 33 36 37 35 34 33 33 38 38 36 33 33 31 30 31 30 31 33 34 31 40 37 33 29 23 26 34 33 34 33 28 23 26 23 21
45 45 45 46 47 47 37 33 32 34 30 30 33 35 34 32 35 37 36 34 34 32 30 29 29 30 30 31 34 29 30 28 31 29 30 31 32 34 33 28 29 26 22 24
45 45 45 45 46 45 33 29 29 34 32 33 34 32 32 34 34 37 35 35 35 34 32 32 30 30 29 29 30 28 28 27 26 26 29 30 30 30 33 32 33 28 24 24
45 45 44 44 45 43 33 33 33 35 30 27 32 30 34 33 36 38 39 36 36 33 35 36 36 36 30 29 29 28 26 26 25 20 27 27 24 28 28 28 28 26 23 25
45 45 44 44 44 43 38 35 34 29 24 25 24 30 30 34 36 35 38 37 36 37 38 37 35 34 31 31 30 29 26 26 27 21 23 15 25 29 30 28 28 28 29 29
45 44 44 43 43 44 39 38 34 30 24 26 26 26 30 35 37 37 39 37 38 39 37 33 30 30 28 30 30 29 28 27 25 22 19 22 25 28 28 28 27 28 29 32
45 44 43 43 43 43 40 38 39 32 29 25 26 25 33 33 33 34 38 40 38 38 35 32 27 24 23 23 27 30 29 28 26 22 20 18 30 31 34 36 29 32 31 35
45 44 43 42 43 43 41 38 39 35 29 28 28 26 26 33 34 31 36 36 37 38 33 28 24 26 26 24 23 24 26 27 23 24 21 25 33 29 36 29 29 37 36 36
44 44 44 43 43 43 40 38 40 37 32 30 30 31 29 29 31 30 35 36 38 36 32 29 28 27 27 25 26 25 25 23 24 25 23 17 31 34 32 36 37 37 36 38
44 44 43 43 43 43 41 35 39 40 37 30 32 31 31 30 29 31 35 35 36 39 35 34 30 29 28 25 26 28 25 27 26 26 26 28 30 31 32 33 34 34 34 37
44 43 43 43 42 43 42 36 37 36 35 32 29 27 31 33 33 33 30 37 39 37 39 36 33 29 30 27 28 27 29 30 27 28 28 28 34 36 36 37 37 36 36 36
43 42 43 44 43 42 43 36 37 38 36 30 27 28 29 31 32 34 33 33 35 36 39 38 34 32 31 29 29 28 29 31 29 29 29 33 36 36 37 38 38 37 37 36
43 44 44 44 43 43 44 40 39 40 36 29 29 31 31 31 32 31 33 31 31 33 37 38 33 36 33 32 32 29 30 28 29 28 33 32 35 36 37 37 36 36 36 36
44 44 44 43 44 44 40 31 39 40 41 34 26 30 29 28 30 31 33 33 34 36 38 38 39 39 35 30 28 29 30 31 32 33 36 37 37 36 36 36 37 37 35 35
43 43 43 44 43 41 34 30 37 41 40 34 27 25 30 35 34 32 33 40 38 39 39 38 37 37 37 34 28 29 31 35 37 37 37 36 36 35 36 36 36 37 36 36
43 43 43 43 41 41 39 40 42 42 38 35 27 23 28 38 37 37 41 38 39 40 39 39 37 38 38 33 34 34 35 35 35 35 35 35 35 35 36 36 36 35 35 35
44 43 41 40 39 38 38 42 42 43 37 29 28 21 23 36 35 38 39 41 35 40 36 37 38 34 32 33 33 33 34 33 34 34 34 35 35 36 35 35 34 33 33 34
42 37 34 30 35 40 40 39 35 35 35 34 27 29 27 32 34 35 36 38 35 32 36 39 36 35 34 32 31 31 31 32 33 32 33 35 34 34 34 34 34 33 34 35
35 31 30 35 39 34 34 29 29 30 28 32 31 32 29 35 32 33 37 34 34 30 30 31 31 31 31 31 30 31 31 32 33 33 33 33 33 33 33 33 33 34 34 34
36 36 36 36 33 29 27 21 30 29 27 34 32 34 35 35 38 34 35 32 33 28 35 32 28 29 30 29 30 31 31 31 31 31 31 31 32 32 33 33 33 33 33 33
37 33 30 32 31 21 16 12 20 21 30 33 33 30 34 37 38 34 33 30 29 34 31 29 27 28 29 29 30 31 31 31 31 32 32 32 32 33 34 33 33 33 33 33
27 24 11 20 13 23 25 25 26 27 32 32 31 30 32 35 32 33 31 34 33 28 25 25 28 30 30 31 32 32 32 32 32 32 32 32 32 32 33 33 32 31 30 32
20 22 11 12 23 23 30 30 29 30 32 32 29 31 32 32 31 32 32 29 27 27 27 32 33 33 33 33 32 32 31 30 30 30 29 30 29 29 27 30 29 29 29 29
20 23 21 20 17 15 16 17 28 32 31 30 32 29 30 31 31 30 30 27 24 30 32 32 32 32 32 33 27 23 24 24 24 25 25 24 24 26 24 25 25 25 24 24
25 24 26 21 21 22 19 23 25 32 28 25 28 27 27 30 29 28 32 30 32 30 29 31 32 32 32 30 30 28 22 20 19 20 21 20 19 22 20 21 23 24 24 23

GFSNW_sfc_dewp_084.txt.gz
Dewpoint
47 46 45 46 45 48 42 35 28 39 42 31 36 33 34 36 35 39 38 37 36 32 31 33 31 33 36 35 37 31 34 34 30 30 36 36 34 33 32 23 26 18 19 21
46 45 45 46 45 46 39 33 32 38 37 29 33 33 34 35 36 38 36 33 34 33 30 30 31 31 33 39 39 36 36 32 26 29 34 37 36 35 33 30 25 16 18 22
46 45 45 45 46 46 38 32 25 30 34 37 33 33 32 32 36 37 37 35 34 32 31 30 30 30 33 35 35 40 37 32 23 20 25 32 33 34 31 27 19 21 22 23
46 45 45 45 46 45 35 30 31 30 29 29 32 33 31 32 33 36 37 34 35 33 30 30 30 31 30 32 35 35 31 30 29 30 33 32 31 33 31 22 27 23 23 23
46 45 45 44 45 43 33 27 26 30 29 31 32 31 31 31 33 35 36 35 36 34 32 33 32 34 29 29 30 29 29 27 27 25 30 31 30 33 32 31 31 28 24 23
46 45 44 44 44 42 32 33 32 32 27 25 26 29 30 30 35 35 37 36 37 33 34 36 36 36 35 31 29 28 26 27 26 24 28 28 29 32 33 31 33 28 23 24
46 45 44 44 44 43 36 34 32 26 21 24 24 26 27 30 33 34 34 38 36 36 38 37 35 35 31 30 30 28 26 26 26 22 23 17 25 28 31 30 29 28 28 28
45 44 44 43 43 44 38 37 32 28 23 25 25 25 26 27 32 35 37 39 38 38 37 32 29 31 28 28 30 29 27 27 25 21 19 22 24 26 29 27 27 28 30 33
45 44 43 42 44 44 39 37 37 32 29 21 26 25 26 28 30 29 36 37 37 37 34 30 26 22 24 23 24 30 29 28 25 23 19 17 29 31 33 34 27 30 32 34
44 43 44 43 43 43 40 37 38 36 30 28 27 24 24 29 31 28 30 33 35 37 31 27 23 25 26 23 23 24 26 26 22 23 20 23 32 30 36 28 25 34 35 36
44 43 43 43 43 44 39 36 39 35 31 29 30 30 28 28 28 26 30 30 37 35 30 29 27 26 26 23 25 24 24 23 23 24 21 16 31 33 32 34 36 37 37 37
44 43 42 43 43 42 40 34 37 39 34 30 31 32 33 31 30 29 30 34 34 38 36 32 30 28 27 25 25 28 25 26 25 25 25 28 31 32 32 33 34 34 37 37
43 42 42 43 44 43 42 38 38 35 35 31 29 27 27 34 34 32 28 34 35 35 34 37 33 28 28 25 27 25 27 29 26 27 27 28 35 36 37 37 36 36 36 36
42 42 43 44 43 43 43 41 39 39 35 28 27 30 29 31 34 34 32 31 37 37 35 38 33 31 30 28 29 27 28 30 28 28 31 35 36 36 37 37 37 37 36 36
42 43 43 43 43 44 44 42 39 39 35 28 30 32 32 31 32 32 34 33 32 35 33 37 35 34 34 32 32 30 30 29 28 27 31 31 35 36 37 36 36 36 36 36
43 43 43 43 43 44 39 30 39 41 41 34 25 30 30 30 32 30 31 33 32 34 35 37 39 38 36 30 28 30 31 30 31 33 36 36 36 36 36 36 37 37 36 35
43 43 43 43 43 42 35 29 37 41 41 34 26 25 28 32 35 31 34 33 37 36 37 36 35 37 38 34 27 30 33 34 36 37 37 36 35 35 35 36 36 36 35 36
43 43 42 41 41 41 39 41 42 42 36 34 26 23 25 37 35 32 36 35 38 38 38 39 37 38 38 34 33 34 35 35 35 35 35 36 36 35 35 35 35 34 35 35
43 41 41 38 38 36 38 41 42 43 36 28 29 25 21 34 34 36 38 39 34 37 36 35 37 34 32 33 32 33 33 33 34 34 34 35 35 35 35 34 34 33 33 35
40 35 32 29 34 39 39 39 34 34 34 35 27 31 26 32 34 35 35 37 35 32 36 39 35 33 33 31 31 31 31 32 33 33 34 34 34 34 34 34 34 34 34 34
34 29 30 33 37 32 35 29 28 27 24 30 28 31 28 34 31 31 36 33 34 29 30 34 29 29 29 29 30 30 32 33 33 33 33 33 33 33 33 33 33 34 34 34
35 33 35 35 34 31 25 20 28 26 20 32 30 30 32 34 37 33 34 32 32 27 36 32 27 28 28 29 31 31 31 31 31 31 31 31 32 32 33 34 33 32 32 33
34 31 29 29 25 18 14 17 14 14 25 30 29 26 31 34 36 33 32 30 29 35 31 28 27 28 28 29 31 30 31 31 32 32 32 33 33 34 33 32 32 31 31 32
26 19 8 17 15 23 26 23 25 26 29 30 28 28 29 33 32 33 31 34 32 27 25 25 24 27 29 30 30 32 32 33 31 31 31 31 32 31 31 30 29 29 29 30
18 21 8 10 20 25 29 30 26 26 30 30 27 28 31 29 30 32 32 29 26 27 27 32 33 33 32 32 33 32 32 30 29 30 29 29 28 28 26 28 25 26 26 26
18 20 21 18 14 13 14 12 16 24 29 27 29 28 27 29 31 30 29 27 24 29 32 32 32 32 32 32 32 25 25 25 25 24 24 22 21 24 22 21 20 21 22 21
25 24 26 24 23 23 17 18 22 30 26 24 25 24 26 27 27 28 31 28 30 30 29 30 32 32 32 30 31 30 23 19 18 19 20 18 18 19 18 19 21 21 22 20

GFSNW_sfc_dewp_087.txt.gz
Dewpoint
47 47 46 46 45 46 41 34 28 38 41 30 36 33 34 36 36 38 37 38 36 35 35 34 28 29 32 34 30 28 30 28 19 28 36 34 34 32 29 22 20 18 16 19
47 47 45 46 45 44 38 32 30 36 37 28 32 33 31 35 36 38 36 35 35 33 30 31 32 31 37 34 34 29 32 26 18 28 34 35 31 34 34 28 25 17 18 19
47 46 45 45 45 44 36 30 21 27 33 36 33 32 30 30 36 37 36 36 35 33 31 31 30 32 37 35 35 38 32 34 24 20 25 30 31 32 33 31 19 20 20 22
47 46 45 45 45 43 32 28 29 28 26 28 31 32 31 29 31 34 36 35 34 34 30 30 30 33 32 38 41 40 36 32 29 31 32 31 31 33 31 26 27 23 24 25
46 45 44 44 44 41 32 26 25 28 26 28 28 30 29 28 29 33 35 35 35 36 31 32 32 34 32 29 30 30 30 30 26 26 32 32 31 33 32 29 28 27 25 22
46 44 44 44 44 40 32 32 31 31 25 24 23 23 28 26 28 33 34 35 36 35 35 36 36 36 35 35 29 28 26 27 24 19 29 31 29 31 31 30 32 27 22 23
45 44 43 44 44 41 35 33 31 25 20 23 24 25 26 25 26 32 34 37 38 37 38 37 36 34 34 30 30 28 26 26 26 22 23 17 23 29 34 31 30 31 28 27
44 43 42 44 44 44 37 36 32 28 23 24 24 24 25 26 29 29 32 38 38 37 36 32 30 30 26 26 28 29 28 27 25 22 21 21 24 27 30 29 29 29 28 31
44 43 43 43 44 44 37 36 36 31 27 21 26 25 24 24 28 26 31 28 33 38 34 30 25 20 24 23 24 28 28 27 25 23 19 16 30 31 33 31 26 30 31 34
44 43 43 43 44 44 38 36 37 33 26 27 27 23 23 27 27 25 27 28 26 37 31 28 24 24 26 23 23 24 25 26 22 24 20 22 30 32 35 25 23 32 34 35
44 43 42 43 42 43 39 36 37 33 27 28 29 30 26 27 26 24 28 28 34 36 31 29 27 25 25 22 24 23 24 22 22 23 20 15 30 32 28 31 36 36 36 37
44 43 41 43 43 42 40 35 38 40 35 29 31 31 31 30 29 29 29 29 30 36 34 33 30 27 26 23 22 26 24 26 25 24 24 27 31 32 34 33 34 33 38 38
44 42 42 43 43 42 41 38 38 38 35 31 28 25 27 34 34 32 28 30 36 35 36 34 34 30 28 24 26 24 26 29 26 27 28 30 34 36 37 37 35 36 37 36
43 42 43 42 42 43 42 39 39 39 35 28 25 30 30 31 34 34 32 31 36 37 36 35 35 31 30 27 28 27 27 30 28 28 31 32 34 35 36 37 37 37 36 37
43 43 42 42 42 44 41 39 38 38 34 28 28 30 31 31 32 32 33 32 31 35 32 34 35 35 34 31 30 28 30 28 28 26 30 31 34 36 37 36 36 36 36 36
44 43 42 42 43 43 36 29 38 41 38 33 25 28 29 29 33 31 31 33 32 33 34 34 38 38 35 30 27 30 30 31 31 31 36 36 36 36 36 36 36 36 35 35
43 43 43 42 41 39 32 28 35 41 41 34 26 24 27 29 37 31 32 33 35 34 35 36 35 35 38 34 28 30 34 35 36 37 37 35 35 35 35 36 36 36 35 35
42 42 41 41 42 40 36 39 41 41 37 34 22 22 23 33 32 33 34 31 34 36 36 38 36 37 38 33 32 33 34 35 35 35 35 35 35 35 35 35 35 34 34 34
41 40 43 37 35 33 34 40 41 41 36 24 24 19 16 32 30 33 35 37 32 37 35 35 36 34 32 32 32 32 33 32 34 34 35 35 35 35 34 34 34 33 33 34
40 34 31 28 32 38 38 37 32 33 34 34 27 27 23 30 31 31 33 36 34 31 33 36 33 31 33 30 30 30 31 33 34 33 34 33 33 33 33 33 33 33 34 34
33 28 29 32 37 32 32 29 28 29 25 28 28 29 28 30 28 28 35 33 33 29 31 34 30 29 28 28 28 30 32 33 32 33 33 33 33 32 32 33 33 33 33 33
33 32 34 33 30 24 21 20 26 27 20 29 30 30 30 31 36 32 31 32 32 27 36 33 26 29 28 28 31 31 31 31 31 31 31 32 32 33 33 33 32 32 32 33
32 30 26 24 26 13 15 15 10 12 23 28 28 26 29 32 35 33 32 30 28 36 31 26 27 29 27 28 31 31 31 32 32 32 33 33 33 33 32 31 30 31 30 30
25 14 7 11 10 23 24 21 15 22 20 25 28 28 24 30 31 31 30 33 32 25 25 23 27 29 28 31 31 31 32 31 30 29 30 30 30 30 30 29 27 27 26 27
19 16 8 13 19 23 29 30 27 23 23 29 27 27 28 25 28 31 31 29 23 25 26 31 32 33 31 30 33 32 31 27 24 24 23 24 26 27 27 25 24 26 25 24
18 21 16 18 15 11 15 24 19 21 23 23 28 26 25 22 29 28 28 27 22 28 30 31 31 32 32 33 33 32 29 27 26 24 23 21 22 25 22 21 20 20 20 19
25 23 25 22 23 22 15 17 21 27 26 22 23 19 16 25 25 27 29 26 28 30 30 29 31 31 32 31 30 31 28 20 19 19 19 17 18 17 17 17 20 19 20 19

GFSNW_sfc_dewp_090.txt.gz
Dewpoint
48 47 46 46 46 45 40 33 27 37 40 29 36 32 35 37 35 39 38 38 36 36 35 30 28 28 30 32 28 25 27 24 23 25 32 31 31 30 28 19 23 17 16 20
47 47 46 46 45 44 36 31 29 33 35 23 31 32 31 31 36 37 33 36 35 35 33 31 33 36 36 34 28 25 27 20 19 26 29 33 29 33 27 26 25 17 16 18
47 46 45 45 44 43 34 27 20 26 31 33 32 32 31 29 33 36 35 37 35 33 31 34 32 35 35 35 30 31 28 24 21 17 19 28 27 32 31 25 18 21 21 22
47 45 45 45 44 41 31 27 27 28 22 25 27 31 27 27 27 31 35 36 35 35 31 30 31 34 36 35 36 36 32 29 28 30 31 27 27 30 32 24 25 23 23 24
46 45 44 45 44 39 31 25 23 26 24 25 25 27 26 27 26 27 32 34 35 37 34 35 33 34 33 31 36 33 34 32 29 27 32 31 29 32 32 32 29 27 25 23
45 44 44 44 44 38 31 30 30 27 23 22 22 22 25 25 26 27 35 36 35 35 34 36 35 36 36 35 33 32 29 30 24 24 30 31 27 31 32 30 30 28 25 26
44 43 43 44 43 40 34 32 29 23 19 21 23 24 25 25 24 25 29 32 37 38 35 36 35 34 35 34 30 30 26 26 25 24 24 19 24 28 33 31 31 30 27 26
44 42 42 43 43 42 36 34 30 26 20 24 24 24 25 23 26 27 26 35 33 32 34 31 28 30 26 26 26 29 28 27 24 21 20 20 24 29 33 30 30 31 31 29
45 43 42 43 44 42 37 35 34 30 22 20 25 24 23 22 24 23 26 28 30 35 33 30 25 21 23 23 25 28 28 27 26 23 19 15 29 30 33 30 27 30 30 31
45 44 42 42 43 42 36 35 36 31 25 26 25 21 22 26 24 24 26 27 27 37 31 28 24 25 25 22 22 24 24 25 22 24 20 22 28 32 35 25 23 31 32 35
45 44 42 42 42 43 37 35 38 30 26 26 28 29 25 26 25 25 25 28 31 32 30 30 28 25 24 22 22 23 23 22 22 23 20 16 29 33 27 29 35 35 36 36
45 44 42 43 42 42 39 33 38 40 31 28 30 30 30 30 28 27 28 27 29 34 30 32 32 28 25 22 21 25 23 26 25 24 24 27 30 32 35 34 33 35 37 37
45 43 42 43 42 42 40 35 38 38 34 28 26 24 28 34 33 32 27 29 36 35 36 33 34 31 28 23 25 24 25 28 26 26 27 30 33 34 37 36 36 36 36 36
45 43 43 42 42 43 42 38 40 37 31 24 24 30 30 32 33 33 31 33 36 35 36 34 35 31 31 27 27 26 27 28 27 27 28 31 33 34 35 36 37 36 37 36
44 44 43 42 42 44 40 37 37 37 30 25 27 30 29 31 31 32 33 31 30 31 29 31 35 36 35 32 28 27 29 27 27 25 29 30 32 35 36 35 35 35 35 35
44 44 43 42 42 41 34 29 37 39 39 31 24 28 29 29 31 31 31 32 31 31 30 30 35 38 36 32 27 29 30 31 31 31 33 35 35 35 35 35 36 36 36 35
44 43 43 42 42 37 30 27 34 40 40 32 23 23 26 28 36 31 31 32 32 31 31 32 33 33 37 34 29 30 33 34 35 36 36 34 34 34 34 35 35 36 35 35
44 43 42 42 42 40 35 38 40 39 34 31 21 21 23 31 30 32 32 29 33 34 33 37 36 35 37 33 31 31 32 33 34 35 35 35 35 34 34 34 34 33 33 34
43 43 42 37 34 32 33 40 41 40 32 22 25 22 19 29 28 33 36 33 31 36 33 34 34 31 30 32 32 31 32 32 33 33 34 35 35 34 34 33 33 32 33 34
43 35 32 29 31 37 38 37 29 30 31 33 25 26 22 28 27 30 33 35 33 30 31 35 33 30 32 30 29 30 31 32 33 32 33 34 32 33 32 32 33 33 34 34
33 30 29 32 36 32 30 28 25 27 25 28 28 26 28 29 27 27 32 31 33 29 30 33 31 29 28 28 28 29 31 32 32 33 32 32 33 32 32 33 33 32 32 32
33 33 34 33 29 24 17 23 26 25 22 28 29 25 26 31 34 32 32 30 32 23 35 32 26 29 28 27 30 31 31 31 31 31 31 32 33 33 33 32 31 30 31 30
33 30 25 23 25 15 12 12 8 8 22 23 21 22 26 30 33 32 31 28 28 35 31 26 25 28 28 28 31 31 31 32 31 31 31 32 32 32 30 29 29 28 28 28
27 20 13 14 16 19 19 13 13 19 18 18 20 18 21 28 28 29 27 32 33 21 20 21 30 32 30 30 31 32 32 31 30 29 29 29 29 28 28 25 26 26 25 26
23 21 12 15 19 26 25 27 25 22 21 20 19 22 25 24 24 28 30 29 23 25 25 30 31 31 33 31 32 32 32 28 21 20 21 21 21 22 23 22 22 24 23 23
22 19 15 20 16 13 21 26 26 21 21 21 26 22 24 16 24 25 27 26 21 24 27 30 30 30 32 32 33 34 32 28 27 25 23 21 22 23 20 20 20 21 22 20
23 18 24 20 17 14 13 17 19 28 26 17 22 17 18 18 15 24 27 23 25 26 25 29 30 30 31 32 31 31 30 22 20 19 18 16 18 16 15 15 19 19 20 19

GFSNW_sfc_dewp_093.txt.gz
Dewpoint
48 47 46 46 46 45 39 33 26 37 40 28 29 28 35 32 34 38 37 37 34 34 35 30 28 28 31 32 27 23 26 26 21 23 30 30 31 29 27 21 24 21 19 22
47 47 46 46 45 43 35 29 28 31 34 23 31 30 31 32 31 35 34 35 35 34 35 32 34 34 35 34 27 24 26 20 19 23 25 31 29 30 28 26 25 22 20 20
47 46 45 46 45 42 33 25 20 24 31 29 29 29 27 27 32 36 33 37 35 33 31 34 33 35 34 34 29 30 27 21 21 16 16 27 27 30 27 25 23 21 22 23
46 45 45 45 44 40 29 26 24 28 15 22 25 28 26 25 24 27 32 35 32 35 32 32 32 35 33 34 35 35 29 23 24 25 29 28 27 30 28 23 23 21 19 23
45 44 45 45 43 38 30 24 23 25 23 24 23 25 24 24 22 26 30 32 31 34 34 34 32 34 34 34 33 32 34 28 29 29 31 30 26 30 30 26 26 27 24 24
45 43 44 44 43 36 30 29 29 25 21 21 20 21 23 23 25 25 28 31 29 32 36 34 32 33 35 36 34 32 32 30 27 27 31 31 27 30 31 31 30 28 27 28
45 42 43 44 43 39 33 31 28 22 17 20 22 23 24 24 23 24 26 28 34 35 31 32 34 34 34 35 34 35 30 30 26 26 28 19 24 29 33 31 31 30 28 27
45 42 42 44 43 41 35 33 29 24 18 23 23 23 24 22 25 26 27 31 29 30 31 31 27 27 25 26 27 29 28 27 24 24 23 21 24 31 32 31 30 32 29 28
45 43 42 43 43 42 35 34 33 27 21 18 25 23 22 22 21 23 24 27 29 33 33 30 25 21 23 23 25 28 28 27 24 23 19 15 30 30 33 32 28 31 32 31
45 44 43 42 43 41 36 34 34 30 22 24 24 19 22 25 24 23 24 26 28 33 31 27 24 25 24 22 22 25 25 26 23 24 20 22 27 31 34 24 23 33 31 33
45 44 43 43 42 42 36 34 38 31 26 26 27 28 24 25 25 21 24 27 27 29 30 30 28 26 24 22 22 23 24 23 23 24 21 18 28 32 26 30 35 35 36 36
46 44 43 44 43 43 38 32 38 40 31 27 30 30 30 29 27 27 26 26 30 34 27 28 32 27 25 22 21 25 23 26 25 24 24 27 29 32 36 34 34 36 37 37
46 44 44 44 43 43 39 35 38 37 30 26 25 24 29 33 32 31 26 28 36 34 35 32 31 31 30 23 24 23 25 28 26 26 27 29 35 36 37 36 36 36 36 36
46 44 44 43 43 44 41 37 37 34 29 21 20 29 29 32 32 33 31 32 35 34 33 31 32 31 31 28 27 26 27 27 27 27 28 32 34 36 36 36 37 37 36 37
45 44 44 43 44 43 39 37 36 35 28 22 25 28 29 30 30 32 32 31 29 30 27 29 32 36 34 33 29 26 29 27 27 25 29 29 31 36 36 35 35 35 35 35
45 44 43 43 43 40 33 30 36 40 38 25 20 27 27 28 29 31 30 33 32 31 28 29 33 37 34 33 28 29 30 31 31 30 33 34 36 36 36 36 36 36 35 35
45 44 44 43 43 36 29 27 34 40 39 28 20 23 25 26 33 32 30 30 31 30 29 30 32 33 36 31 28 29 31 32 33 34 35 34 34 34 35 35 35 36 34 35
44 44 43 43 42 39 34 36 41 39 33 28 13 20 22 29 28 28 34 31 33 33 28 33 35 35 36 33 32 30 32 32 33 34 34 34 35 35 34 34 34 33 33 34
43 43 42 37 35 32 31 41 40 38 29 23 23 19 14 28 27 29 35 31 29 33 32 33 34 33 29 31 31 30 32 32 33 33 34 35 34 34 33 33 33 32 33 34
44 36 32 30 31 37 39 35 27 27 29 31 25 25 19 26 25 25 29 35 33 29 30 35 33 31 32 29 29 30 31 32 33 32 32 33 34 33 32 33 33 33 33 33
32 31 30 33 36 32 28 27 23 25 24 27 25 24 25 27 25 21 28 29 32 28 28 30 31 30 29 28 28 29 31 32 32 33 33 32 33 32 32 33 32 32 31 32
33 33 35 34 30 23 17 23 25 20 21 23 21 22 24 25 32 31 30 26 30 25 33 31 27 27 29 28 30 31 31 31 31 31 31 32 32 32 32 31 30 30 30 30
33 30 26 26 24 15 10 12 9 8 17 18 19 18 24 27 30 29 29 27 25 35 30 28 27 31 32 30 32 31 32 31 31 30 31 32 32 30 29 27 27 26 26 26
28 24 18 20 16 18 15 12 13 18 17 18 18 15 19 25 25 27 22 27 32 26 18 20 28 29 30 32 33 33 33 32 30 29 28 28 28 28 25 24 24 24 23 25
24 24 16 17 21 23 17 18 21 21 20 19 19 21 21 16 23 23 24 26 26 24 22 24 26 29 30 31 33 32 32 30 28 27 19 20 21 22 20 20 20 22 20 20
24 20 19 21 20 22 25 26 26 24 22 22 26 22 18 15 17 17 18 23 19 23 25 26 25 25 28 30 32 33 33 30 28 25 23 20 22 21 18 18 17 18 18 17
21 20 24 21 15 15 17 25 22 26 24 15 21 16 10 20 10 12 17 14 19 23 25 24 27 28 28 30 32 32 30 28 23 18 18 16 18 16 14 13 17 18 19 19

GFSNW_sfc_dewp_096.txt.gz
Dewpoint
47 47 46 46 46 42 39 38 36 38 44 36 37 32 31 33 31 34 35 37 34 31 31 33 31 29 32 32 26 24 27 28 21 21 24 29 34 26 26 29 26 26 25 22
47 46 45 46 45 42 38 33 32 34 37 33 32 28 29 30 30 32 33 36 35 35 32 31 36 34 36 32 24 21 23 24 19 20 19 28 30 28 25 27 28 28 26 21
46 45 45 45 44 40 34 29 36 30 31 31 30 29 23 20 27 33 30 36 33 32 30 32 33 34 35 31 26 28 23 19 20 11 14 22 24 25 26 25 26 21 23 22
45 44 45 45 43 38 31 28 30 30 30 25 28 29 22 20 19 24 31 32 30 32 31 30 31 35 33 35 35 31 25 18 19 20 22 26 25 23 25 28 21 21 21 19
45 44 45 44 41 37 31 27 30 29 25 24 25 23 19 19 19 23 29 28 28 32 32 33 32 34 35 31 35 32 33 26 31 23 26 27 30 24 22 21 20 20 24 22
45 44 44 43 41 34 31 33 33 29 21 23 21 21 20 19 22 22 27 27 27 31 34 29 30 31 34 36 34 32 31 27 27 28 32 29 26 26 25 21 20 20 20 23
44 44 44 42 41 38 34 34 33 24 16 19 19 21 22 21 21 22 24 28 31 32 29 33 35 34 34 35 35 35 31 31 27 27 30 22 25 30 29 26 24 26 26 28
45 43 44 43 41 40 36 35 30 25 18 20 22 22 22 22 23 24 25 27 26 28 33 33 27 27 28 28 30 35 36 31 25 26 24 23 25 30 32 30 27 30 29 28
45 44 44 44 42 40 38 38 34 27 21 17 23 22 22 24 23 22 23 26 29 34 34 32 27 26 26 24 26 28 28 29 27 24 20 16 29 31 33 34 28 31 32 31
45 44 44 44 42 40 37 38 37 32 21 24 25 23 23 27 26 24 24 25 29 32 32 29 27 26 26 24 24 25 26 27 25 25 23 25 28 30 33 27 28 36 32 33
45 44 44 44 43 40 37 37 39 34 28 27 28 27 26 26 26 24 25 28 28 29 29 28 28 25 27 25 25 26 25 26 25 25 22 20 28 33 29 34 35 35 35 35
46 44 44 44 44 42 38 36 39 39 34 29 31 30 30 29 29 28 28 28 30 30 27 28 30 27 28 27 23 27 25 27 26 26 26 29 31 33 36 35 36 37 37 38
46 44 45 44 44 43 40 38 39 38 33 27 25 25 29 33 32 31 27 30 32 32 34 30 30 30 30 26 26 28 27 29 28 27 28 29 35 37 36 36 36 37 37 38
45 44 45 44 44 44 41 38 39 37 32 24 22 29 30 32 32 33 32 34 33 33 33 31 31 32 33 30 29 29 29 29 28 28 29 31 35 37 36 36 37 37 37 38
45 45 44 44 45 44 41 40 39 37 32 24 23 28 29 30 31 32 33 31 31 32 29 29 30 35 35 33 31 30 31 28 26 26 30 30 32 37 36 36 36 36 36 36
46 45 44 44 43 41 37 34 38 40 38 32 25 29 28 27 32 32 33 33 32 32 28 28 31 34 35 33 29 30 30 31 31 30 35 34 37 37 37 36 36 36 36 36
46 44 44 43 41 38 33 30 37 39 40 30 26 24 26 27 34 34 33 33 33 31 31 29 30 31 36 34 28 29 31 35 35 36 36 35 36 35 36 36 36 36 35 35
45 44 44 43 41 40 36 39 40 38 34 29 26 24 24 29 29 29 34 32 33 32 30 31 31 34 35 31 32 33 34 35 35 35 36 35 36 35 35 35 34 34 34 34
45 44 43 39 36 34 36 41 40 39 33 28 27 24 22 29 29 30 33 33 28 32 29 30 33 31 30 32 32 32 33 34 34 35 35 36 35 35 34 34 33 33 33 34
44 38 33 30 33 39 41 34 31 33 32 31 26 27 24 28 27 28 29 34 31 30 30 34 32 29 32 32 31 31 32 33 34 34 34 34 35 34 33 33 33 33 33 33
35 32 30 35 38 35 31 28 27 27 26 28 27 27 25 29 25 26 30 29 31 28 31 31 31 30 30 32 32 32 32 32 32 32 32 33 33 33 33 33 32 31 31 31
35 34 36 35 31 27 25 24 26 24 23 27 27 28 29 28 32 30 31 26 28 23 34 32 27 28 31 33 32 33 31 31 31 32 32 32 32 32 32 31 30 30 29 29
35 32 29 29 26 23 22 20 20 21 26 28 28 25 26 28 31 29 28 26 25 32 32 28 27 28 28 29 33 34 35 32 31 31 31 32 31 30 29 27 26 26 26 26
30 29 21 25 21 23 24 23 23 23 27 27 27 26 26 27 26 26 23 26 30 28 24 24 26 23 23 29 30 34 34 35 33 31 29 29 28 28 23 24 25 23 21 23
27 29 20 20 24 25 24 25 26 26 27 27 25 25 25 25 23 25 25 23 24 23 22 27 28 25 25 27 31 32 33 33 31 29 28 27 27 27 24 22 23 22 20 18
27 23 21 24 26 26 27 27 28 27 27 27 26 23 21 20 22 21 21 23 21 25 28 30 30 28 27 28 30 32 33 34 31 28 27 21 23 24 23 22 22 22 22 20
25 23 24 24 26 26 26 27 27 27 25 22 22 17 17 22 19 19 24 25 27 29 29 30 30 29 27 27 31 32 32 31 29 26 22 17 23 19 15 14 18 21 21 21

GFSNW_sfc_dewp_099.txt.gz
Dewpoint
48 46 44 45 45 41 41 40 38 38 44 37 36 31 29 33 30 32 34 35 33 30 29 34 33 31 33 31 24 22 23 27 20 20 25 29 35 32 28 29 25 28 27 22
48 45 44 44 43 41 38 31 32 37 39 35 33 28 27 29 29 31 31 32 32 33 31 31 35 32 35 29 24 19 23 23 19 17 20 29 28 28 27 26 28 30 27 21
48 45 44 43 42 40 36 30 37 31 32 32 30 28 22 19 26 31 31 35 30 31 30 31 32 32 33 30 24 28 26 19 19 15 18 22 25 25 26 25 28 25 22 22
47 45 44 42 41 40 35 29 33 30 34 26 25 28 19 18 21 25 30 34 29 29 30 28 33 33 31 32 32 27 24 19 16 18 24 24 23 22 25 29 25 28 20 22
46 45 43 41 40 39 32 26 29 27 24 24 23 21 17 17 18 24 28 27 28 30 32 32 31 33 31 32 33 32 30 24 28 25 18 20 21 25 21 23 23 21 20 21
46 45 43 41 40 39 31 32 31 28 22 19 19 21 19 18 21 21 25 24 27 29 32 29 30 31 34 35 33 30 30 24 29 28 33 29 26 25 22 20 19 20 18 21
45 45 43 41 40 37 33 32 29 22 15 16 18 19 20 20 20 21 21 26 30 29 31 34 35 33 32 33 36 34 28 28 28 31 30 24 25 30 29 23 20 18 22 28
45 45 43 41 41 38 35 33 28 21 15 16 18 19 20 21 21 23 24 25 27 30 34 33 29 29 31 30 34 35 36 34 31 28 24 23 25 29 30 28 25 24 23 23
45 45 44 42 41 40 37 36 34 25 18 15 20 20 21 24 21 23 22 26 30 33 34 31 26 25 24 24 26 32 34 33 29 26 21 16 27 31 33 33 28 32 31 28
45 45 45 43 42 39 38 37 38 29 20 23 24 22 22 26 25 22 23 26 30 33 30 28 26 24 27 23 24 25 26 27 25 26 23 25 29 33 34 28 30 35 33 32
45 45 45 43 41 40 38 37 39 34 24 27 27 27 25 25 25 24 24 29 29 30 28 28 27 24 26 26 25 26 25 25 24 24 21 21 31 33 31 35 35 35 35 33
45 45 45 43 42 40 38 34 38 37 33 29 30 29 30 29 28 27 28 28 30 30 29 28 29 25 25 26 26 27 27 27 26 27 27 30 33 35 37 36 37 38 37 36
46 45 45 45 43 41 39 36 38 37 30 27 27 26 29 32 31 31 27 30 31 30 32 30 30 28 29 23 26 27 27 29 28 28 28 30 35 36 36 37 37 37 38 38
45 46 45 45 44 42 40 37 38 37 32 25 24 29 29 31 32 32 31 32 32 31 31 30 29 29 33 27 29 28 27 30 27 26 29 30 35 37 36 38 37 37 38 38
45 46 45 44 44 42 41 39 38 37 35 25 24 27 29 29 30 31 33 31 30 31 29 29 29 33 35 31 31 28 30 29 27 29 32 31 34 37 37 36 37 37 37 37
46 46 45 45 44 41 39 35 37 39 39 34 27 28 27 27 34 32 33 33 30 29 28 28 30 32 33 31 28 29 30 31 32 30 32 35 36 37 37 36 37 36 36 37
46 45 45 44 41 40 35 34 38 39 40 33 27 24 27 29 34 34 33 33 31 30 29 29 28 30 35 33 28 30 32 33 35 36 36 35 36 36 36 37 36 36 36 36
46 45 43 41 41 39 37 40 39 38 34 31 33 26 26 29 29 30 35 31 31 32 29 29 28 30 31 29 31 33 34 35 35 35 36 36 36 36 35 35 35 34 34 34
46 44 42 38 37 35 36 41 39 39 35 32 30 28 27 29 28 30 33 34 28 32 28 28 31 27 29 31 31 31 32 33 34 35 35 36 36 35 35 35 34 34 34 34
44 38 33 31 35 41 41 36 33 34 33 33 27 26 26 29 27 29 29 33 30 30 30 32 31 28 33 31 33 33 32 32 33 34 35 35 35 35 34 33 33 33 33 33
36 33 32 37 39 36 32 30 30 29 28 28 27 26 26 29 27 28 29 29 31 28 31 31 29 29 29 30 31 33 33 32 32 32 33 33 33 33 33 33 32 31 31 31
36 35 38 36 31 29 29 27 27 27 25 27 28 28 28 28 32 29 29 25 29 23 34 32 27 27 28 29 29 32 33 33 32 32 32 32 32 32 32 31 30 30 29 28
37 34 33 30 28 26 24 22 24 24 28 31 29 27 27 29 30 27 29 26 25 29 30 26 26 28 25 27 30 30 32 35 35 34 32 32 31 30 29 29 26 26 25 25
34 32 21 29 24 25 28 29 28 28 32 30 29 27 27 27 26 26 22 25 28 26 25 25 26 25 21 21 27 30 30 34 33 32 32 32 29 29 24 23 24 22 20 21
32 34 25 24 27 27 27 28 28 29 31 29 28 27 27 26 24 24 24 23 21 24 23 28 30 28 27 26 26 28 30 32 33 33 30 29 29 29 27 23 22 22 20 18
32 27 24 26 27 26 28 30 28 30 29 28 28 25 23 22 24 22 22 22 22 27 31 34 33 32 31 30 27 26 30 31 33 31 30 27 25 26 25 23 22 23 23 23
30 26 27 29 30 29 29 29 29 29 27 25 25 20 19 23 22 21 25 25 29 31 30 31 33 32 30 29 28 28 31 31 31 30 28 21 24 25 25 23 19 22 23 23

GFSNW_sfc_dewp_102.txt.gz
Dewpoint
50 48 47 46 44 42 43 42 39 41 46 38 34 34 28 33 29 32 34 34 30 30 29 33 32 30 32 32 25 22 24 27 20 25 27 33 33 32 29 30 26 25 25 23
49 48 46 46 44 43 42 37 37 40 42 34 35 29 27 28 28 30 31 32 29 30 31 32 30 31 33 29 24 23 24 24 16 18 23 29 29 29 31 32 28 24 23 22
49 47 46 45 43 43 42 35 35 35 36 33 30 28 23 20 29 31 32 34 29 29 30 33 32 30 32 32 28 31 27 21 20 21 21 26 25 26 28 28 27 30 29 23
49 47 46 44 42 42 40 33 37 34 34 28 26 29 22 20 22 27 29 33 27 27 30 32 32 33 30 31 32 30 28 21 20 22 22 25 25 25 26 27 30 29 22 24
48 46 45 42 42 41 38 30 30 28 24 25 22 25 21 20 18 24 27 27 27 28 31 31 30 32 32 31 31 29 30 23 22 25 26 21 22 23 24 26 30 28 22 25
47 46 44 42 42 42 36 33 33 32 24 21 20 23 22 19 21 23 24 24 28 27 30 29 30 32 34 36 31 28 28 25 27 26 31 27 24 25 24 22 23 24 21 26
47 46 43 41 42 42 37 34 30 25 18 17 21 19 21 20 22 21 21 24 28 28 31 33 34 34 32 36 36 35 27 27 27 29 27 22 28 32 31 25 22 20 23 28
46 45 42 42 41 41 38 35 33 26 17 18 18 20 21 22 22 23 23 25 27 31 33 34 33 31 32 31 34 35 34 30 30 28 28 24 27 29 31 28 26 26 22 23
47 45 42 42 41 42 39 38 38 30 21 19 20 21 22 24 21 24 25 29 30 32 34 31 28 24 24 28 30 36 34 34 32 25 24 24 28 32 33 33 28 35 34 29
47 45 43 42 41 42 40 38 39 35 24 25 25 23 24 27 25 23 24 26 30 33 31 27 25 24 26 24 24 28 30 29 25 27 26 28 30 35 35 27 33 35 34 32
47 45 44 42 41 41 40 39 40 37 28 28 28 28 26 26 26 25 26 30 30 30 27 26 24 23 25 26 26 26 25 25 29 25 21 23 32 33 32 35 36 37 36 34
47 45 44 42 41 41 41 37 37 37 33 30 30 31 31 30 29 29 30 30 30 31 30 28 28 25 24 24 28 28 29 27 26 27 28 30 35 36 36 37 37 38 38 38
47 45 43 42 41 40 41 38 39 37 31 30 29 27 30 32 31 32 29 30 32 30 33 30 29 27 28 22 27 26 28 29 28 28 29 31 35 36 38 38 37 39 38 39
46 45 45 43 42 42 40 39 40 37 33 27 26 30 31 32 33 33 32 32 32 31 31 31 30 29 34 28 28 27 27 29 28 29 33 31 36 36 37 40 38 38 38 39
47 46 45 44 43 42 41 40 39 38 36 28 26 28 30 30 31 32 33 31 30 29 29 29 29 33 34 32 31 28 30 29 28 31 31 32 35 38 41 38 39 38 37 37
47 46 45 43 42 41 40 35 38 39 39 34 27 29 28 30 33 33 33 32 29 29 28 28 29 31 32 30 29 31 31 33 34 33 35 34 36 37 37 37 37 37 37 37
47 46 45 43 41 41 37 35 39 39 40 34 26 25 27 30 32 33 32 31 31 29 28 27 28 29 33 31 26 33 33 34 35 36 36 35 36 36 36 37 36 36 36 36
47 46 43 41 41 40 37 40 39 40 35 33 29 26 26 29 30 31 34 32 32 32 28 29 28 30 31 29 33 32 32 32 34 34 35 36 36 36 35 35 35 35 34 34
45 43 41 39 37 35 37 41 39 41 37 31 30 25 22 29 28 30 33 35 29 33 29 28 30 28 29 31 31 31 32 31 32 33 35 36 36 36 35 35 34 33 34 34
43 38 35 32 37 41 40 37 35 35 33 33 28 27 25 29 27 27 28 33 31 28 30 32 29 29 32 31 30 32 33 33 33 32 33 34 34 34 35 33 33 33 33 33
38 34 32 38 41 36 34 31 31 31 28 29 27 27 25 28 24 25 28 29 30 24 31 30 26 28 29 29 29 31 32 32 32 32 32 33 33 32 33 33 32 32 31 31
37 36 38 37 33 31 29 28 28 28 27 28 26 26 28 28 30 27 29 26 26 22 34 30 22 26 28 28 29 29 31 33 33 32 31 32 32 32 31 32 31 30 29 28
38 35 32 31 29 24 22 20 25 25 29 29 26 23 27 28 30 26 26 22 24 28 27 24 25 27 25 25 28 29 30 30 32 33 32 32 32 31 29 29 26 25 24 24
32 29 22 28 22 26 28 29 28 31 31 30 28 23 25 27 23 25 18 24 25 21 22 23 24 25 21 21 24 26 28 30 32 34 33 32 32 31 26 23 24 23 20 20
30 32 24 23 27 27 28 29 29 31 31 29 26 23 25 22 17 23 23 21 19 19 20 23 25 27 26 26 26 24 24 26 30 32 32 31 29 28 26 23 22 23 21 19
30 28 24 26 25 25 28 28 28 32 30 29 26 19 15 15 19 19 19 19 17 19 23 25 25 24 24 24 26 26 25 25 29 31 32 30 28 27 26 24 23 24 23 21
28 25 28 29 28 27 29 29 29 30 29 21 21 12 11 21 16 17 18 21 22 24 24 25 25 22 21 20 21 23 23 26 28 29 31 28 23 23 24 24 25 25 24 20

GFSNW_sfc_dewp_105.txt.gz
Dewpoint
53 52 50 48 47 45 44 40 33 40 45 32 32 25 29 32 29 34 34 35 33 30 30 31 29 28 31 32 29 20 23 26 18 25 27 34 32 31 31 26 25 28 24 20
53 51 49 47 47 46 40 36 36 38 41 28 26 29 28 31 28 29 28 33 29 28 33 31 30 28 32 33 27 25 25 22 13 15 22 28 29 30 32 33 32 28 23 21
52 51 49 47 46 45 40 34 28 32 36 32 28 27 22 26 31 30 32 33 29 28 30 31 30 28 32 33 32 31 26 21 21 18 23 25 25 26 29 29 28 29 27 24
52 50 48 47 45 45 38 34 31 30 24 27 25 26 21 21 25 29 30 32 26 27 30 32 31 33 30 31 33 31 29 20 22 25 26 25 25 25 26 25 31 24 28 25
51 49 48 46 44 44 36 27 26 26 24 23 21 26 19 19 20 23 27 26 26 28 31 30 29 31 32 31 30 25 29 18 20 23 26 25 24 24 25 29 33 31 28 25
51 49 48 45 44 41 34 31 31 26 24 19 20 20 19 21 21 24 25 24 27 27 30 29 30 31 35 37 31 26 25 24 26 25 30 23 22 27 23 31 33 29 28 27
50 48 46 44 44 43 34 32 28 24 18 18 21 20 21 21 21 22 23 24 27 29 31 32 33 32 34 36 35 32 26 26 26 28 27 19 30 32 30 26 32 30 28 29
49 47 45 43 43 44 35 34 29 24 15 18 19 20 20 20 22 23 23 26 27 30 31 34 32 30 31 30 32 31 33 30 29 27 26 26 28 31 31 28 31 34 25 26
48 46 44 42 43 43 37 36 36 28 19 19 20 20 20 22 20 22 25 29 29 30 33 31 28 22 25 27 32 33 32 33 29 25 26 24 29 33 34 32 29 35 34 33
48 45 44 43 45 42 38 36 38 29 24 26 25 22 23 26 24 22 24 25 30 32 30 27 24 22 25 23 23 27 28 28 26 23 26 27 30 32 35 25 32 37 36 34
47 45 44 43 43 42 38 37 38 31 27 27 28 29 26 25 26 23 25 28 29 29 27 26 24 22 24 25 26 24 25 23 25 25 21 21 32 34 32 35 36 38 37 36
47 45 43 43 43 41 40 34 37 35 30 28 31 31 31 30 29 28 29 28 30 30 28 29 28 23 23 23 26 27 27 27 25 26 26 30 36 35 36 37 37 37 38 38
47 45 44 43 42 40 40 36 37 34 30 28 27 27 30 32 32 32 28 30 32 31 32 31 30 28 30 21 25 24 27 29 28 28 30 32 36 37 39 39 38 38 39 40
46 45 44 43 43 41 40 37 38 35 31 25 25 30 30 32 33 33 32 32 31 31 31 30 31 29 34 29 27 26 27 29 28 31 32 34 36 36 37 39 39 38 39 39
45 44 43 43 43 42 39 38 38 37 31 25 25 29 30 30 31 34 32 31 29 28 27 28 28 33 34 33 30 29 31 29 28 29 32 32 34 37 41 39 39 38 38 38
47 46 45 44 43 40 36 28 36 38 37 27 23 28 27 32 33 32 31 30 29 28 26 26 28 31 32 29 29 36 33 34 35 33 35 35 35 37 37 37 37 37 37 37
47 45 44 43 42 40 36 32 36 39 38 28 23 23 27 32 32 33 33 32 31 29 27 26 27 28 32 29 24 33 31 32 34 34 35 35 36 35 36 36 36 36 36 36
46 44 42 42 41 40 36 39 40 40 34 32 21 23 25 30 29 29 34 31 32 31 28 28 27 29 31 25 32 31 32 32 33 32 33 35 36 35 35 35 35 35 34 34
46 43 41 38 37 33 35 40 39 39 34 26 25 18 18 29 27 29 33 34 29 33 29 27 30 27 26 28 29 29 30 31 31 32 33 35 36 36 36 35 35 34 34 34
44 38 34 32 37 41 39 36 33 32 31 32 25 26 22 27 27 26 28 33 28 27 28 31 27 27 30 30 29 30 32 32 32 31 31 32 32 33 33 34 33 33 33 33
38 33 33 38 40 35 33 30 30 28 26 28 26 24 22 27 22 24 28 28 30 22 28 28 24 25 27 29 28 30 32 32 32 32 32 32 32 32 32 32 33 32 31 31
35 36 38 37 32 30 27 27 27 27 25 27 24 25 25 27 29 27 29 24 25 19 32 28 22 23 26 28 27 28 29 30 30 33 33 32 32 32 32 32 32 30 30 29
38 34 31 30 27 20 19 19 23 23 27 27 26 23 26 27 28 25 26 20 16 29 26 21 22 25 26 26 27 27 28 29 29 29 31 33 32 33 31 31 30 28 28 25
31 28 24 25 15 22 25 27 27 30 29 27 25 21 24 26 20 24 12 21 23 21 21 16 20 25 22 21 23 24 23 25 27 29 30 32 33 33 32 26 25 26 22 22
29 30 20 20 25 27 28 30 30 31 30 27 23 23 22 20 18 21 22 20 11 17 16 19 22 24 24 23 25 23 22 21 18 22 29 31 32 31 27 23 22 22 22 20
28 21 20 26 25 25 27 29 29 30 29 27 25 19 15 14 16 18 9 9 9 15 19 20 19 20 21 21 25 25 24 23 23 25 28 30 31 29 24 22 20 22 23 23
20 22 27 27 27 26 28 29 29 30 27 20 19 12 12 20 13 12 11 12 17 21 21 21 22 19 18 16 16 20 22 22 23 25 28 29 26 24 23 22 23 23 26 25

GFSNW_sfc_dewp_108.txt.gz
Dewpoint
55 54 53 51 49 48 46 40 31 39 43 30 28 24 28 33 30 35 34 35 33 29 33 26 28 21 28 32 31 22 24 24 17 23 29 33 32 30 29 16 18 18 20 19
54 54 52 50 48 47 41 37 34 38 40 26 24 29 27 30 28 30 28 32 29 28 32 29 27 26 30 32 29 25 25 21 14 15 20 26 27 30 32 31 26 21 22 22
54 53 51 50 48 47 39 32 28 31 36 32 27 26 23 27 31 30 31 31 29 28 31 30 29 25 30 32 33 33 26 20 19 14 21 25 24 25 29 30 27 28 28 28
54 53 51 50 49 48 35 34 29 29 24 27 26 24 20 25 25 28 30 31 26 27 30 30 31 30 29 30 32 30 27 18 21 22 24 25 24 24 26 24 32 25 27 28
53 52 50 49 48 48 35 31 27 27 27 25 25 25 19 19 20 26 28 25 26 27 29 30 29 32 31 30 29 22 26 13 21 23 26 25 22 22 25 31 34 31 29 26
52 51 50 49 47 42 33 32 31 25 25 21 20 21 19 20 21 24 26 25 28 26 29 29 29 31 34 36 32 24 23 23 24 25 28 23 23 28 25 33 35 33 30 33
51 50 49 47 47 43 33 31 30 22 19 18 21 21 20 21 21 22 22 23 26 29 30 32 32 32 35 36 34 30 26 26 25 21 25 16 32 32 29 33 35 34 33 32
51 49 48 45 45 44 34 34 28 23 17 19 20 20 20 21 23 20 22 25 26 30 31 33 30 29 30 30 31 30 32 32 26 22 19 29 29 31 31 29 33 36 35 34
50 49 47 45 44 44 36 36 34 25 20 18 21 20 21 21 20 22 24 28 29 30 32 31 27 20 25 27 30 33 33 32 28 24 24 21 28 31 35 33 28 35 36 34
49 48 46 44 46 43 36 36 36 29 24 25 23 20 22 25 23 22 24 26 29 32 29 25 23 21 25 22 22 27 28 29 26 22 23 27 29 32 34 24 28 37 37 36
49 47 45 46 45 42 36 36 38 29 26 27 29 29 24 25 25 22 24 28 28 28 25 24 23 21 23 22 24 23 24 22 22 25 21 20 32 33 31 35 36 37 37 37
47 46 46 45 45 42 39 33 35 34 29 29 31 31 31 29 28 28 28 27 26 28 27 27 27 23 23 22 22 26 25 26 24 25 26 30 34 35 37 37 37 37 37 38
46 46 44 45 44 42 38 34 35 33 30 27 27 27 30 32 32 32 28 29 30 30 31 28 28 26 27 21 24 22 27 28 27 28 32 31 34 37 40 39 40 39 39 41
47 45 45 44 43 43 40 36 38 33 29 25 25 30 30 32 34 32 32 31 31 31 30 31 30 29 32 26 27 25 27 28 28 31 32 33 36 35 38 41 41 39 39 39
47 45 44 44 44 42 39 37 37 37 28 25 26 29 29 30 34 32 31 30 29 28 27 28 28 32 33 32 29 30 32 29 27 30 31 31 32 35 39 39 38 39 38 39
47 46 46 44 42 40 32 26 34 38 34 28 25 28 28 32 32 31 29 29 28 27 26 26 27 30 31 28 26 34 32 33 34 32 33 34 35 35 36 37 37 38 39 38
47 46 45 43 42 40 34 29 35 40 37 28 24 24 28 31 31 32 32 32 29 27 26 25 26 27 32 28 24 35 31 32 32 32 34 34 36 35 35 35 36 37 36 36
47 45 43 42 42 39 35 37 39 39 34 30 20 24 24 30 28 27 34 31 31 29 27 27 26 28 30 25 29 29 30 31 31 32 33 33 34 36 35 35 35 35 34 34
45 42 40 38 37 33 34 39 39 38 31 25 21 19 16 28 28 28 32 33 25 32 29 26 28 26 25 26 29 29 28 29 30 32 32 33 34 34 34 35 36 34 34 34
42 39 34 32 36 40 39 35 29 30 30 30 25 26 22 26 26 26 28 31 25 23 25 30 29 26 28 29 28 29 30 32 32 31 30 31 31 32 32 32 33 33 33 33
38 33 33 38 40 35 33 27 24 26 23 27 25 24 25 27 21 24 27 23 27 21 23 26 25 24 26 28 28 29 30 31 32 32 32 32 32 31 31 31 31 32 32 31
35 36 38 37 33 29 22 21 24 23 20 25 23 24 26 27 28 23 28 21 25 11 31 28 21 22 26 27 27 28 28 28 29 30 30 31 33 32 32 32 32 33 31 30
38 34 31 30 28 16 16 15 18 20 25 25 25 22 26 27 26 23 25 14 15 27 26 21 21 24 26 26 27 26 26 28 28 28 29 29 31 33 33 32 32 29 29 29
31 29 24 24 17 21 21 25 27 29 26 25 25 23 24 26 20 24 12 20 22 19 15 14 19 25 25 23 22 22 22 22 23 25 27 28 28 30 33 33 29 27 27 26
30 29 20 20 23 27 29 30 30 30 28 26 24 22 22 16 17 20 21 20 9 17 16 18 20 24 22 21 24 21 21 19 15 16 17 21 24 29 31 30 27 23 22 21
28 21 21 26 24 26 26 29 28 30 27 26 24 18 13 14 15 14 9 10 8 15 17 19 18 19 19 20 24 24 22 21 21 22 22 25 26 29 29 27 26 22 21 20
22 22 26 24 25 26 27 30 29 30 26 20 19 10 8 19 13 11 11 11 15 19 22 19 20 19 17 16 15 17 18 19 19 21 24 25 28 25 25 24 24 22 23 22

GFSNW_sfc_dewp_111.txt.gz
Dewpoint
50 53 55 53 50 50 45 40 33 39 43 33 26 23 27 32 27 34 34 35 32 28 32 26 14 14 22 31 31 25 25 26 20 23 27 33 30 30 29 20 19 24 16 20
51 55 54 52 49 48 41 34 34 40 41 22 23 29 27 30 27 28 30 33 29 30 32 25 25 25 29 32 29 30 29 21 12 14 18 25 26 28 31 29 23 26 14 23
54 54 53 51 50 47 40 34 26 34 39 33 26 26 25 26 31 28 31 30 29 29 31 30 27 25 29 32 32 33 26 19 17 13 19 25 23 26 28 27 20 25 25 29
54 53 52 51 49 46 37 31 26 30 30 29 26 23 23 26 26 28 30 29 27 27 29 28 30 29 28 29 31 29 25 15 20 20 22 24 23 24 26 26 30 20 30 31
53 52 51 50 49 45 34 31 28 27 26 26 25 23 19 24 21 27 27 26 27 26 27 29 29 31 31 31 28 21 25 12 24 25 24 24 21 24 30 31 31 28 30 32
53 51 51 50 49 42 33 32 30 27 25 21 20 22 19 20 22 24 27 26 27 28 29 29 30 31 34 35 32 23 23 21 24 19 26 23 24 30 27 31 32 31 28 32
52 51 50 49 48 40 32 31 29 22 20 19 20 21 20 21 22 22 22 27 27 28 30 33 32 33 36 35 31 30 30 27 26 25 26 16 31 32 32 32 33 35 33 32
51 49 50 48 47 43 34 34 27 22 18 19 20 20 21 22 22 20 22 25 27 29 32 31 28 27 31 30 32 30 32 31 26 20 17 27 29 32 31 29 32 35 35 35
50 49 48 47 44 45 36 36 32 25 21 18 21 19 20 20 20 21 24 28 30 31 32 32 28 20 24 25 30 33 32 32 28 24 21 18 29 31 33 33 26 36 36 36
50 49 47 45 44 45 35 36 35 28 24 25 22 19 22 23 23 22 23 26 29 32 28 25 23 21 23 22 23 26 27 29 25 25 23 24 29 34 35 22 24 36 36 36
49 48 46 45 46 42 36 36 37 29 27 27 29 28 24 25 24 22 23 28 28 28 24 23 23 21 23 21 23 21 23 21 22 24 22 20 33 32 32 34 36 37 37 37
48 47 46 46 45 42 38 31 35 34 29 28 31 31 31 29 27 28 27 26 26 28 26 26 25 23 22 21 20 25 23 24 24 24 24 30 33 35 38 37 37 38 36 37
48 46 45 45 44 41 38 34 34 33 28 27 27 27 30 32 32 32 28 29 30 29 30 27 27 23 25 21 23 21 25 27 26 28 31 30 34 38 40 39 39 39 39 40
47 46 46 45 44 43 38 35 37 32 28 24 26 30 30 32 33 32 32 31 31 30 30 28 27 27 29 25 26 24 26 27 28 29 30 33 36 35 38 40 41 39 39 39
47 47 47 45 44 42 39 37 37 36 28 26 26 28 29 33 32 30 30 30 28 28 27 27 26 29 30 30 27 25 30 28 27 27 30 31 30 33 36 40 38 39 38 39
48 48 46 46 44 40 32 26 33 38 34 28 24 28 31 31 31 29 28 28 27 27 27 26 26 29 30 25 24 31 31 32 32 31 31 33 34 34 34 36 37 38 39 38
48 47 46 45 42 39 32 28 34 40 35 27 23 25 30 31 30 31 30 30 28 27 26 25 26 27 33 27 23 32 31 32 31 30 32 33 36 35 36 36 36 36 36 36
47 46 44 43 42 39 33 36 39 38 32 28 18 23 26 29 27 27 33 28 28 27 26 27 26 27 30 25 26 29 31 29 30 30 31 31 33 34 36 36 35 35 35 34
46 44 41 38 36 33 33 38 39 36 30 24 21 19 17 30 28 28 30 30 23 30 26 25 27 25 23 26 27 28 29 28 29 30 30 31 33 33 34 33 34 34 34 35
43 39 34 31 35 40 39 34 28 29 30 28 23 25 23 28 26 26 25 29 24 19 25 28 26 25 27 28 27 29 30 31 31 31 28 30 30 31 31 31 32 32 33 33
39 33 33 38 40 36 33 28 23 24 22 25 25 23 24 28 21 22 26 20 21 14 21 21 21 22 25 27 27 28 30 30 30 31 31 32 32 31 31 31 31 32 32 32
36 36 38 36 33 30 26 20 24 21 18 25 22 23 26 26 27 22 22 18 18 11 26 22 15 21 25 26 26 27 28 28 28 28 28 29 30 31 31 32 32 32 33 32
38 34 31 31 29 21 14 12 16 15 25 25 25 23 26 27 26 22 18 9 13 25 26 21 21 23 26 26 27 27 26 26 26 26 27 28 28 28 28 30 32 32 30 30
32 29 23 27 23 21 18 20 24 28 25 25 24 23 23 25 20 22 11 19 21 20 14 14 18 24 26 25 24 22 21 21 22 23 23 24 24 26 27 28 32 31 29 28
30 29 20 22 23 25 28 28 28 29 27 25 22 20 22 14 19 20 22 21 11 16 15 18 18 24 23 21 23 20 20 18 14 13 13 18 19 21 22 26 30 29 27 24
27 23 22 26 25 27 27 27 26 28 26 25 22 14 12 16 15 11 10 10 8 14 17 18 17 19 18 20 23 23 21 20 19 21 20 23 23 23 25 27 28 27 25 22
25 23 26 22 22 25 28 28 28 28 24 20 18 7 7 15 9 8 9 10 15 18 24 19 19 20 18 15 15 17 17 17 17 20 22 23 24 26 26 25 26 25 24 21